GFSFLT2_850_thetae_009.txt.gz
Theta_e
334 334 334 331 327 328 323 321 321 321 322 323 322 324 324 322 321 319 317 318 318 318 318 323 325 325 325 323 321 320 324 322
334 333 333 333 324 328 325 327 326 324 322 323 322 322 322 323 325 325 325 324 323 322 323 325 325 326 324 323 320 319 321 323
329 335 331 327 329 327 326 329 326 326 325 323 324 327 322 321 319 322 326 327 326 325 324 325 326 325 325 323 321 319 321 321
318 316 316 318 332 327 327 329 329 324 322 322 323 322 317 316 315 317 319 320 322 322 323 324 324 323 323 322 321 320 320 321
318 316 315 321 330 328 328 328 327 326 323 321 324 321 318 311 310 310 314 319 308 315 314 315 321 319 321 321 323 324 319 320
318 316 313 318 324 325 326 327 324 320 320 317 313 309 307 307 308 308 307 306 307 309 309 310 311 311 315 319 320 320 321 320
317 316 313 314 319 323 326 325 323 322 321 313 313 314 312 308 308 308 308 307 307 308 308 309 309 311 313 315 317 319 319 319
317 316 313 313 314 315 320 322 321 319 314 311 311 312 312 310 312 308 307 307 306 305 305 306 307 308 310 315 317 317 316 318
316 315 314 315 315 314 315 313 312 310 309 309 307 306 308 308 309 307 306 307 303 304 302 301 302 306 310 311 311 315 317 318
316 315 314 313 313 313 311 311 310 309 308 308 308 305 305 305 306 306 305 303 303 303 302 302 301 301 301 306 311 313 315 317
315 314 313 310 310 312 312 310 310 309 309 307 308 307 304 304 307 305 305 304 304 304 304 303 303 302 302 302 302 302 302 303
314 313 312 311 310 310 310 310 309 309 310 310 308 307 306 304 305 306 305 305 304 304 304 303 303 303 302 303 303 303 302 303
314 313 312 311 310 309 309 308 308 307 309 309 308 308 307 306 305 305 305 304 304 304 303 304 303 303 303 302 302 302 303 302
314 313 312 311 310 309 309 308 307 307 307 308 308 307 307 306 305 305 305 304 304 304 303 303 303 303 302 303 302 301 301 303
314 314 313 312 311 309 309 308 307 307 308 308 307 307 307 306 306 305 305 305 304 304 304 303 302 303 303 302 302 302 302 302
314 313 313 313 312 310 309 309 308 307 307 307 306 306 305 305 306 306 305 305 303 303 303 302 303 302 300 298 299 301 303 302
313 312 312 312 311 311 310 309 309 308 307 306 306 305 305 306 306 306 305 304 304 303 303 302 301 299 297 299 300 300 300 300
313 313 312 312 312 311 311 311 310 309 308 306 306 305 304 305 305 304 303 303 302 301 300 300 296 294 294 293 294 294 295 296
314 313 313 313 313 312 312 311 311 310 309 307 305 305 304 303 302 301 300 300 300 299 298 296 296 293 291 291 291 291 292 293
313 313 313 313 312 312 312 311 311 311 310 307 305 304 303 301 301 300 298 297 299 299 296 293 291 291 292 291 292 291 292 293

GFSFLT2_850_thetae_012.txt.gz
Theta_e
333 334 332 330 321 323 321 320 320 320 320 320 320 320 321 321 322 322 321 319 317 317 319 321 323 324 324 326 324 325 325 325
332 333 331 331 323 323 325 323 323 321 320 319 318 318 319 318 319 319 320 322 323 324 323 325 325 325 325 324 324 323 319 319
331 330 330 328 326 327 326 324 324 322 320 320 320 320 320 319 318 317 319 324 324 324 324 324 324 326 326 325 324 321 318 315
323 321 316 320 321 327 326 326 325 324 322 320 319 319 317 315 314 314 315 320 319 320 320 319 320 323 323 323 322 322 322 320
320 317 315 316 324 326 327 327 326 324 322 322 320 318 316 316 313 310 312 316 317 310 315 314 313 319 320 319 320 320 323 322
318 316 314 319 323 327 327 327 326 323 324 322 323 320 319 309 309 309 309 308 306 308 310 308 309 310 310 314 316 319 320 321
317 315 315 314 321 323 325 325 324 321 319 319 316 313 312 311 308 307 307 307 307 307 307 307 307 308 308 310 314 316 317 319
316 315 315 313 316 323 325 325 325 323 320 319 314 312 311 310 309 309 308 307 306 306 304 304 303 303 304 306 308 312 317 317
316 316 315 315 313 314 315 316 317 317 315 313 310 309 309 309 310 309 309 308 307 304 304 303 302 302 302 302 305 310 310 312
316 316 315 314 313 312 311 312 311 311 310 309 308 308 306 306 307 310 309 307 305 303 303 303 303 302 302 302 302 301 302 303
316 315 315 314 313 312 311 310 311 310 310 309 308 308 308 306 305 306 308 306 304 304 304 304 303 303 303 303 302 302 302 302
315 314 314 313 312 311 310 310 310 310 309 309 308 308 309 308 305 304 305 305 305 305 304 304 302 302 302 301 301 301 301 301
315 314 313 312 312 311 310 310 309 308 309 308 307 308 308 308 307 306 305 305 305 304 304 303 302 302 302 302 300 300 300 299
314 314 313 313 312 311 311 310 309 309 308 307 307 308 308 308 307 307 305 305 304 304 304 303 303 302 301 302 302 300 299 299
314 313 313 313 313 312 312 311 310 309 309 308 307 307 308 308 307 307 306 305 305 304 304 304 303 302 301 303 301 300 297 298
313 313 313 312 312 312 312 311 311 311 310 309 308 307 307 307 307 306 306 305 305 304 304 303 303 303 302 302 297 297 299 299
314 314 313 312 312 312 312 312 311 311 311 310 309 307 306 306 306 306 306 305 305 303 303 302 302 299 295 295 295 295 293 293
315 314 313 313 313 313 313 313 313 312 312 311 311 309 307 306 305 306 306 305 305 304 303 301 299 300 300 299 296 293 291 292
313 313 313 313 313 313 312 311 311 311 312 311 311 309 307 306 305 306 305 302 303 302 300 299 299 299 299 294 291 291 291 292
313 313 313 312 312 312 311 309 309 309 308 308 308 308 304 303 303 302 300 299 300 298 298 299 299 296 293 292 291 291 291 292

GFSFLT2_850_thetae_015.txt.gz
Theta_e
322 323 322 320 317 317 320 320 319 320 320 319 320 320 321 321 321 320 321 321 318 318 319 320 321 321 324 324 325 324 325 326
326 323 319 316 317 319 324 324 323 321 320 319 318 318 318 318 319 319 320 321 323 323 323 324 324 323 324 324 324 323 323 320
329 325 321 319 321 323 325 325 324 324 321 319 319 320 321 319 318 318 318 319 323 323 323 320 321 324 325 325 325 324 323 322
328 322 317 315 320 321 325 326 326 324 323 320 320 320 322 316 314 312 312 315 318 318 318 317 315 315 320 323 323 323 322 322
322 318 316 314 317 326 325 327 324 323 320 320 319 318 316 312 310 310 309 309 312 312 308 311 311 309 311 314 316 316 317 318
320 318 315 314 314 320 324 325 324 324 319 317 318 317 314 311 309 308 308 308 308 307 306 308 309 307 308 309 310 313 316 318
319 317 315 315 312 313 318 322 323 324 323 320 319 318 314 312 312 310 308 308 307 307 307 307 308 307 308 308 308 310 312 315
318 316 315 315 314 312 315 322 324 324 324 323 321 319 314 312 312 311 310 310 309 307 306 305 304 303 302 303 304 305 307 309
318 316 315 315 314 313 313 315 317 317 318 317 314 312 309 309 309 309 310 311 310 308 307 303 303 303 303 302 302 301 302 303
316 315 315 315 314 313 312 311 311 311 311 311 310 309 309 308 307 307 307 309 308 306 304 303 303 304 304 303 303 303 302 302
316 315 315 314 312 312 312 311 311 310 310 309 309 309 309 308 308 307 305 305 306 305 304 304 304 304 303 303 302 302 302 301
315 315 314 313 312 312 311 311 311 310 310 309 308 309 308 307 308 308 306 305 305 304 305 305 304 304 302 303 303 304 303 301
315 314 314 313 313 312 312 311 311 311 310 310 309 308 307 307 307 308 307 307 306 305 305 304 304 303 302 302 302 302 303 301
314 314 313 313 313 312 312 312 312 311 311 310 309 309 309 308 307 307 307 307 307 306 305 305 304 304 302 302 301 302 302 301
314 314 313 313 313 313 312 312 312 312 311 311 311 310 309 308 307 307 307 307 307 306 305 304 304 304 303 302 302 301 300 301
315 314 314 313 313 312 312 312 312 312 312 312 312 311 309 308 307 307 307 308 307 305 304 304 303 304 303 303 301 297 295 294
315 315 313 313 312 312 313 313 313 312 312 312 311 311 311 308 307 307 307 308 306 304 304 303 304 303 301 298 296 296 296 295
313 313 312 313 314 314 313 312 312 312 311 309 309 310 310 310 309 306 308 307 305 304 303 302 300 300 300 299 299 296 294 292
313 313 313 313 313 313 312 311 310 310 309 307 307 307 307 307 307 305 306 305 305 302 300 299 299 300 300 299 299 299 295 292
312 312 312 312 311 310 310 308 307 307 306 305 305 305 306 306 305 304 303 300 297 298 298 299 300 299 299 296 294 292 291 291

GFSFLT2_850_thetae_018.txt.gz
Theta_e
320 321 318 318 317 317 319 321 321 321 321 321 320 320 321 320 320 320 319 320 320 320 319 320 321 322 323 324 324 325 324 325
322 322 320 316 316 316 319 321 322 322 320 320 319 319 319 319 319 320 319 320 321 322 323 324 323 323 324 325 325 324 323 322
327 321 317 315 314 315 317 319 319 321 322 320 319 318 318 319 318 316 314 312 314 318 318 319 315 315 318 322 324 324 323 322
328 320 318 314 314 313 316 318 316 318 318 320 319 317 318 320 314 311 309 309 311 313 312 310 309 309 309 313 320 323 322 322
329 321 317 314 314 314 314 315 317 318 319 317 318 318 317 316 313 312 310 310 309 310 311 308 309 309 307 308 308 309 310 313
330 319 316 315 314 313 312 313 317 319 321 320 319 318 317 317 311 310 310 309 308 307 307 306 307 307 308 307 308 307 307 309
329 319 315 314 314 314 312 313 316 319 320 321 321 321 319 318 314 312 311 310 308 309 308 307 306 306 305 305 304 304 305 305
324 318 315 315 315 314 313 313 315 315 316 318 319 319 317 316 312 310 311 310 309 309 308 307 306 305 304 304 304 303 303 303
321 317 315 315 315 313 312 312 312 311 311 312 312 311 310 309 308 308 308 308 309 309 308 307 305 304 303 303 304 304 304 304
319 316 315 315 314 313 312 311 311 310 310 310 310 309 309 309 308 307 308 307 306 307 306 306 304 303 304 304 304 303 303 303
318 315 315 314 313 312 312 311 311 311 310 310 309 309 309 308 308 307 308 308 307 305 305 305 304 304 304 304 303 303 303 303
316 315 314 313 313 312 312 312 311 311 311 311 310 310 309 309 308 308 307 308 307 307 306 305 305 305 304 304 303 303 303 303
315 314 314 314 313 312 312 312 312 312 312 311 311 311 310 309 309 308 307 307 307 307 307 306 306 305 304 304 304 303 303 302
315 314 314 313 313 313 312 312 312 312 312 312 312 312 311 311 310 309 308 307 307 307 307 307 306 306 305 304 304 304 304 303
314 314 313 313 312 312 312 312 312 312 312 312 312 312 311 311 310 309 308 307 307 307 307 307 307 306 305 304 303 303 303 302
314 314 313 312 312 312 312 312 312 313 312 311 311 311 310 309 310 310 309 307 307 307 307 307 306 305 304 303 303 303 302 301
313 312 312 312 312 313 313 313 313 312 311 311 309 308 308 308 308 307 309 308 307 308 308 306 305 304 304 303 302 301 298 297
312 312 313 313 313 313 312 311 311 310 309 308 307 307 307 306 306 306 306 307 306 306 306 304 304 303 302 299 298 297 295 294
313 312 312 312 312 311 310 308 306 306 305 304 304 305 305 304 303 303 305 305 304 303 302 300 298 298 298 298 298 299 298 297
312 311 311 310 308 306 305 305 304 303 302 301 303 304 303 303 303 303 304 302 300 298 298 297 298 299 299 299 298 297 294 292

GFSFLT2_850_thetae_021.txt.gz
Theta_e
320 320 317 316 316 316 317 316 319 320 320 320 319 320 319 319 319 319 319 320 320 320 320 320 321 321 322 323 324 324 325 324
323 321 318 315 315 314 313 314 319 321 320 318 318 317 318 318 319 319 318 316 315 315 320 323 323 323 321 321 323 325 324 323
324 319 318 314 314 314 314 313 314 314 317 317 318 317 316 318 318 315 314 309 309 312 314 315 316 312 311 312 317 321 323 322
327 321 318 315 314 313 313 313 313 314 315 315 317 317 316 316 316 313 311 310 309 309 311 312 310 308 310 308 308 312 317 320
328 324 318 315 314 314 313 312 313 314 316 316 315 316 316 317 317 315 312 310 310 309 309 308 307 308 308 308 307 307 308 307
328 325 317 314 314 314 314 314 314 316 317 318 319 319 319 318 317 315 312 312 311 309 308 308 308 307 306 307 306 306 306 306
330 326 316 314 314 314 313 314 315 316 317 316 316 316 316 315 315 315 312 310 310 310 309 309 308 307 306 304 303 303 303 304
329 326 317 315 315 313 312 313 313 313 313 312 312 313 312 311 310 309 309 308 308 308 308 307 307 307 305 304 303 303 303 303
328 327 317 315 315 313 312 312 311 311 310 310 310 310 310 309 309 309 308 307 307 307 307 307 306 305 305 304 304 304 304 304
328 325 317 315 314 313 312 312 311 311 311 310 310 310 309 309 309 308 308 307 307 308 307 306 305 305 305 304 304 304 304 304
325 322 316 315 313 313 312 312 311 311 311 311 311 311 311 310 310 309 308 308 307 308 307 307 306 306 305 304 305 305 304 303
323 319 315 314 313 313 312 312 312 312 312 312 311 311 311 311 311 311 310 309 308 308 308 307 307 306 305 305 305 305 304 304
320 317 315 314 313 313 312 312 312 312 312 312 311 311 311 310 310 310 309 309 309 308 308 308 307 307 305 305 305 305 304 304
316 315 314 314 313 312 312 311 312 312 312 313 313 312 312 312 312 311 311 310 308 308 308 308 308 307 307 306 306 306 305 304
315 314 314 312 312 311 311 311 312 312 312 313 312 311 311 311 310 310 310 309 310 310 308 308 308 308 307 306 306 306 306 304
312 312 312 312 312 312 312 312 311 312 311 310 310 309 308 307 307 307 307 307 307 309 309 308 307 308 306 306 305 305 305 305
312 312 312 312 312 312 312 311 310 308 307 306 305 305 304 303 304 305 304 304 305 306 307 307 306 307 306 305 304 304 302 301
312 312 312 312 311 311 312 312 310 307 305 304 303 302 301 301 303 303 302 303 303 304 305 305 304 303 303 302 301 302 300 298
312 311 312 312 312 311 310 307 304 303 302 302 301 301 300 301 302 302 302 302 303 303 301 300 299 299 299 299 299 298 298 297
311 311 312 311 309 305 303 302 302 300 300 299 300 300 300 301 302 301 301 301 301 299 298 298 297 298 298 298 298 297 296 295

GFSFLT2_850_thetae_024.txt.gz
Theta_e
324 319 316 315 315 314 314 315 317 319 320 319 318 318 318 319 319 319 320 320 320 320 320 322 322 322 323 323 323 323 327 328
328 323 319 315 316 315 314 313 318 320 319 318 318 318 318 318 320 319 318 317 313 313 318 321 321 322 318 314 316 319 326 326
324 328 319 316 315 315 314 313 313 313 314 316 318 326 323 323 320 317 313 311 310 310 310 311 311 311 309 310 310 320 322 324
326 321 319 316 314 315 315 314 324 320 321 315 324 317 318 318 316 316 314 313 310 310 309 309 310 313 313 308 316 311 316 319
332 324 318 315 324 324 326 326 326 324 315 317 318 316 323 324 324 323 323 315 316 313 310 312 309 308 311 307 308 307 316 317
333 328 318 314 318 324 325 324 326 326 328 318 324 326 326 326 325 325 323 323 318 317 317 310 309 309 308 306 306 308 315 316
334 330 322 315 315 315 314 315 325 325 326 322 315 324 324 324 322 321 320 320 319 319 319 318 316 311 308 307 306 308 305 309
334 330 324 315 315 314 312 313 319 317 323 321 310 311 320 320 319 318 318 318 317 317 317 314 314 310 309 306 304 309 308 305
330 329 328 317 315 314 313 317 311 318 318 311 311 310 310 310 317 317 316 317 313 312 313 311 310 311 307 306 305 305 306 304
328 327 329 319 315 314 313 315 312 314 311 312 312 311 311 311 315 316 315 314 316 316 316 315 314 312 310 309 308 308 307 305
327 326 328 319 315 314 313 312 311 314 312 312 312 312 312 311 311 313 314 315 316 316 315 315 313 312 310 309 309 308 308 307
325 326 326 319 315 314 313 312 312 312 312 312 312 312 311 311 311 312 314 315 315 315 315 315 314 312 310 309 308 309 308 308
323 324 322 318 317 316 317 316 314 313 313 312 311 312 313 313 312 312 312 314 315 314 314 315 315 313 311 310 309 309 309 308
318 317 316 316 315 313 312 311 312 312 313 313 313 312 312 311 310 310 311 312 313 313 314 314 314 313 312 311 310 310 310 309
314 314 314 313 312 313 313 313 313 313 312 312 311 310 307 306 304 304 304 306 310 311 312 312 313 313 312 311 311 310 310 310
312 312 312 312 312 312 311 312 312 312 311 310 310 308 306 304 304 304 304 306 308 309 309 310 311 311 312 312 311 310 310 310
312 313 312 311 311 312 315 314 312 311 313 311 307 306 305 304 305 300 301 303 305 305 307 308 308 309 309 310 310 309 308 307
313 312 312 311 311 310 311 308 306 307 306 305 304 303 303 303 304 300 301 302 302 302 303 303 304 305 305 305 305 303 304 305
312 312 311 310 309 307 306 305 305 304 304 303 303 302 302 302 301 302 303 302 301 301 301 301 300 300 300 300 300 299 299 300
312 312 311 309 308 306 303 300 303 304 303 303 302 301 301 301 301 301 300 300 301 299 299 299 299 298 298 297 296 296 295 295

GFSFLT2_850_thetae_027.txt.gz
Theta_e
326 320 316 315 315 315 314 315 320 320 320 319 318 318 317 318 318 319 319 318 316 313 313 316 320 322 323 323 321 321 322 326
329 329 330 331 323 315 314 313 316 319 319 317 317 318 318 317 318 320 316 314 310 309 309 310 311 312 313 310 310 310 321 324
331 330 331 329 328 323 319 316 315 318 319 315 321 329 328 328 323 317 316 314 313 311 310 309 310 312 314 310 308 318 321 321
330 331 331 330 326 327 329 327 329 329 329 328 328 328 327 321 323 323 320 320 314 314 313 311 312 319 318 316 317 319 318 319
329 331 331 330 327 326 327 327 327 328 329 329 329 327 328 327 327 326 326 324 324 323 322 320 319 318 317 318 318 318 317 317
329 331 329 324 325 324 325 325 327 327 328 329 328 326 326 326 324 324 323 323 323 322 321 321 321 320 317 313 312 315 315 316
329 332 333 326 318 325 326 326 327 328 327 327 326 325 325 324 323 322 322 321 321 320 320 319 320 319 317 316 315 314 314 315
329 332 334 325 324 326 325 326 326 326 325 325 322 322 322 322 321 320 319 318 319 318 317 318 318 317 316 314 313 311 311 313
329 333 333 328 325 325 323 323 321 322 321 321 320 317 320 319 320 319 318 318 318 318 318 318 318 317 316 314 312 311 311 312
329 331 331 331 325 324 322 321 321 320 319 319 319 315 313 313 319 318 318 318 318 318 318 318 317 317 316 315 312 311 311 311
328 330 332 330 326 324 322 321 320 320 319 319 318 318 318 316 317 318 318 318 318 318 317 317 317 317 316 314 313 312 311 311
328 329 331 329 326 323 320 320 319 319 317 316 316 316 316 316 316 317 317 317 317 317 316 316 316 316 316 315 313 312 311 311
326 327 327 325 323 321 319 318 318 316 316 315 316 316 315 315 314 314 314 314 314 314 315 316 316 316 316 316 315 314 312 311
320 320 318 317 317 316 316 315 316 316 316 315 314 314 313 313 312 311 311 311 311 311 312 313 314 314 314 314 314 314 314 312
317 317 316 315 314 316 316 315 315 315 315 315 314 313 312 311 310 309 309 309 309 309 310 310 311 312 312 313 313 314 313 313
317 316 316 315 314 315 316 316 316 316 315 313 313 311 309 308 307 307 307 308 307 308 308 308 309 310 310 310 311 313 313 313
316 315 315 315 314 313 314 314 313 311 311 310 308 307 306 305 305 305 306 306 306 307 307 307 307 307 307 308 309 309 310 308
316 315 315 314 313 313 312 311 310 308 308 307 306 306 305 304 304 304 305 305 306 305 305 305 304 303 303 303 304 304 305 303
316 315 315 314 312 311 310 309 308 307 307 306 306 305 303 302 303 303 304 304 303 302 302 301 300 299 299 299 299 300 300 299
316 315 313 311 311 310 309 309 308 307 307 306 304 302 301 302 302 302 301 301 301 300 299 298 298 297 297 297 296 296 296 295

GFSFLT2_850_thetae_030.txt.gz
Theta_e
316 316 315 314 314 313 311 311 316 319 319 318 317 316 316 315 315 318 317 315 313 309 308 308 309 310 311 315 312 309 312 327
330 328 326 328 327 315 312 311 312 314 315 315 321 329 326 326 320 316 315 314 312 311 310 309 309 309 309 309 307 308 321 324
330 331 331 329 328 324 323 319 328 324 327 323 329 328 329 326 322 323 323 321 320 314 314 312 311 313 318 316 315 319 321 321
331 331 331 328 325 325 328 327 328 328 329 328 330 327 325 325 326 325 325 323 322 324 322 319 319 319 318 318 318 319 319 314
331 331 329 331 325 326 328 328 328 330 329 326 328 325 328 326 326 325 324 322 323 323 321 322 321 319 314 317 318 315 313 316
331 329 322 322 327 326 326 326 328 327 329 328 328 327 326 326 324 324 322 322 321 321 321 321 320 321 320 319 317 313 312 315
329 331 331 324 320 325 323 324 328 328 327 328 325 318 324 320 320 320 320 320 319 319 319 318 319 319 319 317 316 314 314 311
330 332 333 326 325 323 321 326 327 326 326 325 322 313 316 315 317 318 319 319 318 316 317 318 318 318 318 316 316 314 312 311
328 332 333 331 325 325 324 324 322 322 322 321 317 315 316 315 316 317 319 318 317 316 317 318 318 317 317 317 316 315 313 311
329 331 333 333 328 325 323 323 322 321 320 320 320 319 318 316 315 316 317 318 316 318 317 317 318 317 317 317 316 315 314 312
329 329 331 331 331 326 324 322 320 321 320 320 319 319 317 317 316 316 316 317 317 317 317 317 317 317 317 317 317 316 315 313
328 329 331 332 329 326 323 321 320 320 319 317 317 316 316 315 313 313 313 314 314 314 315 315 316 316 315 316 316 315 315 315
327 329 328 328 326 323 321 320 318 318 316 316 316 316 315 314 314 314 313 312 312 312 311 311 311 314 315 316 315 314 316 317
320 321 321 319 317 317 317 317 316 316 316 317 315 315 315 314 312 311 310 309 309 308 308 310 311 312 313 314 314 313 313 313
318 317 317 315 315 316 316 316 315 316 316 315 315 315 314 311 309 308 306 306 307 307 304 306 308 309 310 311 312 312 312 312
317 317 316 316 314 315 316 315 316 316 315 312 312 311 308 307 306 305 305 305 305 305 306 307 307 307 307 308 309 309 309 309
317 316 316 315 314 314 313 313 312 311 310 309 308 307 307 306 305 304 303 303 302 305 306 306 306 307 306 305 305 304 305 306
317 316 316 315 314 313 312 311 310 309 308 308 307 307 306 304 302 301 302 303 304 305 305 302 302 301 301 299 299 299 299 299
317 316 315 314 312 312 311 310 310 309 308 308 307 306 303 302 301 301 303 303 301 301 300 300 300 299 298 297 297 297 297 297
314 315 314 312 311 310 310 310 310 308 307 307 306 304 301 301 301 301 300 299 299 299 299 299 297 297 297 295 295 295 295 294

GFSFLT2_850_thetae_033.txt.gz
Theta_e
315 315 314 314 313 311 309 310 313 316 316 314 315 319 318 319 318 314 314 314 312 311 310 309 309 309 308 308 307 307 309 326
327 322 322 323 321 314 310 311 311 312 313 321 326 323 324 321 322 323 324 323 321 317 315 314 311 310 313 315 312 308 317 323
330 330 326 326 324 323 318 319 320 322 323 328 327 326 325 323 325 324 324 322 323 323 322 318 318 317 317 317 317 319 320 320
331 330 324 326 325 325 327 328 327 328 327 327 327 326 326 326 326 325 324 322 322 322 321 319 319 317 317 316 314 315 315 317
330 328 325 330 324 325 328 328 327 326 328 327 327 326 327 326 325 324 323 321 322 321 319 319 320 318 319 317 316 313 315 313
331 326 325 327 327 327 326 328 327 328 328 328 325 325 325 324 321 321 318 319 319 319 320 318 317 318 318 318 318 316 314 312
330 327 316 318 324 324 326 327 327 326 328 327 325 314 316 315 316 316 317 319 318 318 318 316 315 315 316 317 317 316 315 314
327 329 329 320 324 323 317 322 326 325 325 325 322 317 314 314 314 315 316 318 318 317 316 316 317 317 317 317 317 317 317 315
328 329 331 329 322 322 321 325 324 324 323 322 320 315 314 314 313 314 318 318 317 316 315 315 317 317 317 317 317 317 317 316
328 330 331 331 327 325 324 322 322 320 321 320 319 319 319 318 317 315 313 313 313 313 313 314 316 317 317 317 317 317 317 317
330 332 331 331 328 325 324 323 322 319 321 320 320 320 319 319 316 314 313 314 314 315 315 316 316 317 317 317 315 312 314 316
329 330 330 330 328 326 324 322 321 321 320 319 318 317 316 315 315 314 314 313 313 313 312 312 313 312 311 310 313 314 315 315
326 328 327 327 324 323 321 321 319 318 316 316 316 316 315 315 315 314 312 311 309 308 308 307 306 306 309 307 310 310 311 310
323 323 325 321 318 318 318 318 316 316 315 316 316 316 315 314 312 311 309 307 306 306 306 306 304 302 307 309 309 308 308 310
316 316 316 315 316 316 316 316 316 316 316 315 313 311 311 310 308 308 306 305 305 305 304 302 302 305 307 307 307 307 305 306
316 316 316 316 315 315 314 313 313 314 313 311 310 310 309 308 307 306 305 304 302 300 302 304 306 306 305 305 304 301 300 301
316 316 316 315 315 314 313 312 311 310 309 309 308 308 307 307 307 306 302 299 302 303 304 304 302 301 300 300 299 300 298 298
317 316 316 314 312 312 312 311 310 310 309 308 308 308 307 306 304 301 300 300 302 302 300 299 299 299 299 298 297 296 296 295
315 315 315 314 312 311 310 310 310 309 308 307 307 306 305 304 300 299 299 299 298 298 298 298 298 297 296 296 296 295 294 295
314 313 312 311 310 310 309 308 306 305 305 305 304 303 303 301 300 299 298 296 297 297 297 296 295 295 295 294 296 295 295 294

GFSFLT2_850_thetae_036.txt.gz
Theta_e
315 314 313 313 312 309 309 311 314 315 314 312 312 314 317 316 316 319 319 318 317 314 312 313 311 309 309 310 308 307 310 324
315 317 319 318 314 310 309 309 310 311 314 318 319 317 318 322 322 323 322 319 320 321 320 315 315 314 314 315 314 309 319 322
328 326 319 320 323 322 320 318 318 318 318 320 320 321 321 322 323 323 321 321 321 320 318 315 315 315 315 315 315 315 318 319
329 329 319 324 324 327 327 327 326 325 322 323 325 322 325 325 324 323 321 319 320 320 317 315 315 315 315 315 315 315 314 315
329 329 323 327 325 326 328 327 326 325 327 327 327 321 325 325 323 321 319 316 316 316 315 314 315 314 313 314 316 315 315 314
329 326 323 326 327 327 327 327 327 327 328 328 327 324 321 323 322 316 314 315 315 316 316 317 316 315 314 314 313 314 315 314
330 324 316 317 323 325 326 326 327 327 327 328 327 324 318 321 315 315 315 316 317 317 317 317 315 315 314 315 315 315 314 315
330 327 323 322 316 319 319 325 327 327 326 325 325 323 317 314 315 315 316 317 317 317 316 316 315 314 314 316 317 317 317 317
329 327 327 325 320 319 320 321 324 324 323 324 323 321 316 314 316 314 314 315 314 314 314 315 314 315 316 316 316 317 317 317
329 329 330 329 323 324 325 322 323 322 321 321 321 320 319 318 319 317 315 313 313 313 314 314 314 315 315 316 317 317 317 317
329 331 329 329 328 323 325 323 322 321 320 320 320 320 319 320 317 316 315 313 313 314 313 313 312 312 312 312 311 310 309 310
330 329 328 328 327 325 325 323 322 321 320 319 319 319 317 316 315 315 315 315 314 313 310 308 306 305 304 303 302 301 301 303
328 328 328 327 325 324 322 318 316 316 316 316 316 315 315 315 314 314 314 313 310 308 307 305 304 303 302 300 300 300 303 304
321 318 317 317 318 318 318 318 317 316 316 315 314 314 313 313 313 312 310 308 307 306 305 304 302 299 300 304 305 303 303 305
316 315 315 315 315 315 315 315 314 314 314 314 313 311 310 309 308 307 306 306 306 304 302 299 299 303 304 303 302 302 300 300
315 315 315 315 315 314 312 311 311 311 311 311 310 309 309 308 308 307 307 304 299 298 300 303 302 301 301 300 300 299 298 298
316 315 315 315 315 314 312 312 311 311 310 309 309 308 308 308 306 304 301 298 297 299 299 299 298 298 298 298 298 297 296 296
316 316 315 314 314 313 311 311 310 310 310 310 308 307 306 305 303 301 300 299 297 296 297 298 298 297 297 296 295 295 295 294
316 315 314 313 312 311 310 310 309 308 307 305 304 304 303 302 301 300 300 298 296 296 295 296 296 295 294 294 294 295 294 294
314 314 313 312 311 310 309 308 306 304 302 301 301 301 301 301 300 299 297 296 296 295 295 294 294 293 293 293 293 293 293 293

GFSFLT2_850_thetae_039.txt.gz
Theta_e
314 313 313 312 310 309 310 311 312 313 312 310 314 317 316 319 319 319 318 316 317 317 316 313 314 312 312 314 314 309 310 318
314 315 317 313 310 308 308 309 310 310 313 318 319 318 319 320 320 320 318 317 317 314 313 312 312 312 312 313 314 316 317 319
318 319 316 319 317 314 313 314 315 316 319 320 320 320 322 320 319 320 319 318 317 316 314 313 313 312 312 312 313 313 313 315
327 326 316 323 325 326 325 323 322 322 320 323 323 320 320 319 320 320 319 317 317 316 315 314 314 314 313 313 313 313 313 313
327 326 319 323 324 326 327 326 324 324 323 324 325 321 320 323 321 319 317 316 316 316 315 316 316 315 315 314 313 313 313 312
329 325 318 322 324 326 325 324 324 324 324 323 325 324 320 320 319 317 316 316 316 317 317 317 317 316 315 315 315 315 315 315
329 324 316 316 317 320 323 323 322 324 326 326 326 325 323 317 318 317 315 316 316 317 317 316 316 316 315 314 316 316 317 317
329 325 318 318 317 320 321 320 326 326 325 326 326 326 324 320 317 315 315 315 316 316 316 315 314 314 314 314 314 315 316 317
329 325 319 320 319 321 320 321 321 322 323 322 324 324 321 319 316 318 315 315 315 314 313 313 313 313 313 313 314 314 315 317
330 324 327 322 324 325 323 324 325 325 324 324 323 321 320 319 319 319 318 317 315 313 313 313 314 312 310 310 310 310 310 309
330 324 323 323 327 325 323 323 325 322 321 321 321 321 320 320 319 318 316 315 315 314 314 313 312 309 307 305 304 303 302 301
329 328 328 327 327 325 324 322 322 321 320 320 320 320 319 318 316 316 315 315 314 312 311 309 307 306 305 304 302 301 298 300
329 328 327 325 325 325 323 322 319 317 316 316 316 316 315 315 315 314 312 311 309 308 307 306 306 305 303 300 298 297 301 302
320 318 317 318 318 318 318 316 315 315 315 315 315 314 313 311 309 308 308 307 307 306 305 303 300 298 299 300 300 298 299 303
315 315 315 315 315 315 314 312 310 310 309 308 309 310 310 310 309 308 307 307 305 300 297 296 296 297 299 300 300 299 299 298
315 314 314 313 311 310 310 310 310 310 309 309 310 309 309 308 308 306 304 302 300 297 297 295 296 298 298 298 298 298 297 297
316 315 313 313 312 312 312 311 310 310 309 309 309 309 307 305 304 302 301 300 299 299 296 296 298 298 297 297 296 295 295 295
316 316 315 313 313 312 311 311 310 310 309 308 307 304 302 302 301 301 300 299 298 296 295 295 295 295 295 294 294 294 294 293
316 315 314 313 312 312 311 310 309 307 304 302 300 299 300 300 300 299 295 295 295 295 295 295 294 294 293 293 293 293 293 293
313 313 313 312 311 310 309 308 305 303 302 299 297 298 299 299 298 296 294 295 295 294 294 295 294 294 293 293 293 293 293 292

GFSFLT2_850_thetae_042.txt.gz
Theta_e
314 314 312 311 310 309 309 311 313 314 313 311 314 315 317 318 317 316 315 316 316 314 312 312 313 313 313 313 314 314 313 315
313 313 312 311 309 308 309 311 312 311 313 317 316 318 318 318 318 316 314 315 316 314 313 313 312 312 312 312 313 313 313 316
314 315 314 312 309 309 309 310 311 314 318 319 319 320 319 318 317 317 317 316 316 315 314 313 313 313 313 312 311 312 312 313
321 321 315 317 317 315 314 316 319 318 321 323 321 319 320 320 318 318 318 317 316 316 315 314 315 314 314 314 313 313 312 312
323 323 317 321 322 322 322 322 322 322 322 324 324 322 320 320 320 319 318 316 316 316 316 316 317 316 315 314 314 314 314 313
326 323 318 322 323 325 325 324 324 324 324 324 325 325 324 321 319 320 318 316 316 316 316 317 317 317 316 316 314 315 316 315
327 325 319 323 324 326 327 326 325 326 326 325 324 324 324 322 320 319 316 315 315 315 316 316 316 315 314 314 313 313 314 315
328 328 325 326 326 326 326 326 326 327 326 327 326 326 326 323 318 317 316 315 315 315 315 315 314 313 313 313 313 311 311 313
329 329 325 327 326 325 324 323 323 326 327 326 326 327 326 322 318 318 318 317 316 316 315 314 313 313 314 314 312 309 307 307
329 330 328 326 325 324 323 323 324 325 325 324 325 325 324 321 319 319 319 318 317 316 315 314 313 313 312 310 308 307 305 304
328 329 328 325 323 320 322 324 324 324 323 321 322 322 321 321 320 319 316 316 315 314 312 311 311 309 307 307 306 306 305 302
329 328 326 322 324 325 324 322 320 320 320 319 319 319 319 317 316 315 312 311 310 309 308 307 306 305 304 303 302 299 298 298
328 328 326 325 324 322 318 320 318 315 313 312 313 314 315 313 312 310 309 308 308 307 306 305 302 298 296 296 295 298 302 300
324 320 319 319 319 318 316 315 311 310 310 309 309 309 308 309 309 309 308 308 307 304 301 299 297 295 295 295 298 297 298 300
314 314 315 314 313 312 311 310 310 311 310 309 309 308 308 309 309 308 307 303 302 300 298 297 296 295 295 297 298 298 297 296
315 313 312 311 311 311 311 311 311 311 310 309 309 309 308 308 305 303 301 300 299 297 295 295 295 295 295 296 297 297 296 296
316 315 315 313 312 312 312 311 310 310 309 309 308 306 304 302 301 300 299 298 296 294 294 295 295 295 295 295 295 294 294 294
316 316 315 314 313 312 311 310 309 309 307 305 302 300 298 298 298 298 297 296 293 294 294 294 294 294 294 293 293 292 292 292
316 315 314 313 311 310 310 308 306 304 302 300 297 297 296 296 296 297 297 296 293 293 293 293 294 294 294 293 293 293 293 293
315 313 312 311 310 308 306 304 302 300 299 298 297 297 297 297 297 297 297 296 293 294 294 294 294 293 293 293 292 292 292 291

GFSFLT2_850_thetae_045.txt.gz
Theta_e
325 318 315 313 312 311 309 311 313 315 311 311 314 316 318 316 316 316 316 315 313 312 313 313 312 312 311 311 311 311 312 315
315 313 312 311 309 309 311 312 314 312 314 316 317 318 318 317 316 316 316 316 315 314 313 312 312 312 313 312 311 311 311 312
313 312 311 310 309 309 310 312 311 315 317 319 319 319 317 317 317 317 316 316 316 315 313 313 313 313 313 313 313 313 312 311
315 315 313 311 309 310 310 311 314 319 320 321 318 318 319 319 318 318 318 317 316 315 315 314 315 315 314 314 313 313 313 313
320 318 318 318 319 316 317 321 320 321 323 323 323 322 322 320 321 321 319 317 315 315 316 316 316 316 316 315 315 314 313 314
323 320 322 324 325 325 325 325 324 325 325 325 326 326 325 323 322 321 320 317 316 316 316 316 316 316 315 314 313 313 313 312
326 322 323 324 325 326 326 326 326 326 326 327 327 327 326 325 322 320 320 316 316 315 315 316 316 315 313 313 313 314 313 311
327 326 324 326 325 326 326 327 326 326 326 325 325 325 326 325 322 319 317 316 317 317 316 316 315 314 313 313 313 314 312 309
328 329 325 327 327 327 325 324 324 322 324 323 323 324 325 325 322 319 318 319 318 317 316 315 315 314 314 314 313 312 310 309
327 328 328 328 326 324 321 322 321 321 323 323 322 322 322 323 321 320 319 318 317 315 315 314 312 311 311 310 309 308 307 306
326 327 328 328 325 323 320 320 321 323 322 320 320 320 319 319 318 316 315 314 312 311 309 308 308 308 307 306 305 303 301 300
324 326 328 325 325 321 320 323 320 318 315 314 313 313 313 314 313 312 310 309 309 308 308 307 304 301 299 298 297 296 296 296
326 327 324 325 325 322 318 317 313 310 309 309 309 309 309 308 308 308 309 309 308 306 302 300 298 297 296 299 296 297 300 302
326 323 324 322 319 317 316 313 310 310 311 310 310 309 308 308 308 308 308 305 302 300 298 297 296 295 295 298 299 299 299 299
314 314 313 313 314 313 311 310 311 311 311 310 309 308 308 307 306 304 302 299 298 297 296 295 294 294 294 297 298 299 298 297
312 312 312 312 311 311 311 311 311 311 310 309 308 308 306 303 301 298 297 296 296 296 295 293 293 296 295 296 296 296 297 296
315 314 313 313 312 312 312 311 310 309 309 307 305 303 300 297 296 296 296 295 296 296 293 292 293 294 295 294 294 294 294 294
315 315 315 314 313 312 311 309 307 305 304 302 300 298 297 297 297 297 296 296 296 296 293 293 293 293 294 294 295 294 294 294
315 315 314 313 311 310 309 306 304 303 301 300 299 298 297 298 297 297 297 297 296 294 293 294 294 294 294 293 293 293 292 292
315 314 312 311 310 308 306 304 303 301 300 299 299 299 299 298 298 298 298 297 295 295 293 293 293 293 292 291 290 290 290 290

GFSFLT2_850_thetae_048.txt.gz
Theta_e
334 332 326 320 317 317 315 313 314 315 312 310 313 316 318 316 316 316 316 314 313 313 313 312 311 311 312 312 312 311 319 317
333 330 322 315 313 312 311 314 316 312 312 315 317 319 318 317 317 316 316 316 315 314 313 312 312 313 313 313 313 317 319 318
321 327 316 313 319 312 314 315 313 315 317 318 320 324 322 321 318 317 316 316 316 315 313 313 314 315 314 314 315 319 319 319
314 313 311 311 317 312 314 314 318 320 321 320 326 322 326 326 320 320 318 316 316 315 315 315 317 320 320 318 319 317 318 319
314 314 312 310 313 315 319 319 319 321 324 325 324 323 326 327 326 326 325 320 322 320 319 320 317 317 319 316 317 317 317 317
318 318 316 317 318 320 322 326 324 324 325 325 326 325 325 324 327 326 323 323 318 317 320 315 316 316 316 315 314 314 315 314
322 320 322 324 325 325 325 326 327 326 326 327 327 327 326 326 325 324 321 321 321 319 319 318 317 316 315 314 314 313 312 313
325 322 323 324 325 325 326 326 327 326 326 327 326 325 323 322 324 323 320 319 318 318 317 317 316 315 314 313 314 313 312 312
326 326 325 326 326 326 326 326 323 321 321 323 324 323 322 322 322 322 320 319 318 316 316 314 314 313 313 312 312 311 310 310
328 327 326 327 326 321 320 320 319 319 322 322 322 321 321 321 321 320 319 318 315 313 312 311 311 310 310 310 309 308 308 306
327 326 327 326 324 322 321 320 321 321 319 317 316 315 314 314 313 313 311 310 310 310 309 308 308 307 306 304 303 304 302 303
325 325 327 327 325 320 316 319 322 317 311 310 309 309 309 309 308 308 308 309 309 307 305 305 304 303 303 301 303 302 302 304
324 325 327 323 320 321 321 320 315 310 310 310 311 310 310 309 309 308 307 307 305 303 302 302 301 302 302 301 301 302 305 304
327 325 324 323 322 320 318 316 312 312 311 311 311 310 309 308 308 307 305 304 303 302 301 300 300 300 301 301 300 300 301 303
325 324 321 318 317 315 314 311 310 311 311 311 310 309 308 308 305 302 301 300 301 300 300 300 299 299 300 300 300 300 300 299
320 320 318 311 312 315 314 314 314 313 312 310 309 308 305 303 300 298 299 300 300 299 298 299 299 298 297 298 298 298 297 297
316 316 315 313 312 314 314 313 312 312 311 308 306 305 301 298 298 299 301 301 300 300 299 299 298 297 297 297 297 296 296 296
314 314 313 313 313 313 312 311 310 307 306 305 304 303 302 302 301 301 301 301 300 299 299 298 297 297 296 297 296 296 295 295
315 315 314 314 313 311 309 307 305 305 304 303 302 301 301 301 301 301 300 299 300 299 298 297 296 296 296 295 295 295 294 294
315 315 313 312 310 308 305 304 304 304 303 302 301 301 301 301 300 300 300 299 299 298 297 297 296 296 295 295 294 294 293 293

GFSFLT2_850_thetae_051.txt.gz
Theta_e
335 333 332 331 329 325 321 317 313 315 313 311 313 316 317 316 316 316 314 313 313 313 312 311 311 313 314 314 314 316 320 320
335 334 331 329 323 319 315 313 315 315 311 315 319 318 317 317 318 317 317 316 315 314 312 312 313 313 314 314 315 320 321 320
333 331 331 332 327 312 313 314 315 313 316 319 324 327 326 327 319 318 317 316 316 316 314 313 314 321 320 318 319 320 319 320
330 331 330 327 325 315 324 316 317 325 326 324 329 329 329 328 321 320 320 318 317 317 316 316 321 322 321 321 320 320 319 319
327 326 323 323 323 325 324 324 327 329 330 331 328 329 329 329 328 328 328 325 325 323 322 322 322 322 321 320 320 319 318 318
322 316 313 323 323 323 324 325 328 329 330 325 331 330 327 326 328 327 327 326 324 323 322 324 322 321 320 319 318 317 317 316
327 325 318 323 327 329 330 329 329 329 330 328 327 327 326 325 325 325 321 324 324 323 323 322 320 320 318 318 317 317 316 316
328 327 327 329 331 330 329 329 328 328 328 326 326 326 324 324 323 325 325 323 321 320 319 318 318 317 317 316 315 315 315 315
330 329 330 330 329 328 326 325 323 320 320 320 322 323 323 322 323 322 321 321 319 319 317 316 315 315 315 314 314 313 312 312
331 330 330 329 326 325 324 320 319 320 320 320 320 320 319 318 317 316 315 314 313 313 313 313 312 311 310 310 309 307 306 307
331 331 329 326 326 323 324 322 320 318 319 319 314 310 309 310 311 311 311 312 312 312 310 309 308 307 306 306 305 304 305 305
331 330 327 327 325 324 324 321 319 319 315 310 310 311 311 313 313 312 311 311 311 309 308 306 305 304 304 304 304 304 303 304
331 327 326 327 325 324 322 318 320 314 314 314 314 313 313 313 312 312 311 309 308 307 305 303 303 302 302 302 303 302 302 305
328 327 326 326 324 324 322 320 316 315 315 313 313 311 311 311 309 310 309 307 305 304 303 303 302 301 301 301 301 301 301 303
329 327 326 324 322 320 319 317 316 314 315 314 313 311 310 308 308 307 306 304 303 303 302 301 301 300 300 299 299 300 300 299
324 324 323 321 319 317 317 315 316 316 315 314 313 311 310 307 306 304 304 303 303 302 301 301 300 299 299 299 299 298 299 298
323 322 320 319 318 317 317 317 316 315 314 312 311 309 307 306 304 303 304 303 302 302 301 301 300 299 299 298 298 298 298 298
319 319 318 317 317 317 317 316 314 312 310 308 307 305 304 303 303 303 303 302 302 302 300 300 299 298 298 298 298 297 297 297
319 318 317 317 317 315 313 311 309 308 308 307 305 303 303 303 303 302 301 301 301 301 301 300 299 298 298 297 297 296 296 295
319 318 317 316 314 311 310 308 308 307 306 305 304 303 303 303 302 301 300 300 300 300 299 299 299 297 297 297 296 295 295 294

GFSFLT2_850_thetae_054.txt.gz
Theta_e
334 334 333 332 331 329 323 319 315 315 314 311 312 316 316 316 315 315 314 313 313 313 312 312 313 314 314 314 316 319 320 320
334 333 332 330 326 322 318 314 315 315 311 316 319 317 317 317 317 316 316 315 315 314 313 313 313 316 321 319 319 321 319 320
330 329 325 321 318 315 314 315 315 312 316 322 326 327 328 327 321 317 317 316 315 315 315 314 318 323 323 321 321 321 318 320
333 332 332 327 318 314 315 315 315 320 320 328 329 330 330 324 326 326 327 324 323 324 322 321 323 323 322 322 321 320 319 319
332 329 328 326 323 325 318 325 329 329 325 331 329 326 329 328 327 328 326 326 326 323 323 324 323 321 320 319 318 318 318 318
324 320 324 324 321 324 324 325 329 329 328 326 327 326 327 325 327 327 328 326 324 324 324 323 322 321 320 319 318 317 317 317
317 313 318 320 326 325 327 327 329 329 328 328 326 326 326 326 323 323 323 322 324 323 323 322 321 320 319 318 317 316 315 315
324 319 322 328 328 329 328 328 328 327 326 325 324 324 324 325 325 324 325 323 322 321 319 319 317 317 315 315 314 314 313 313
327 328 330 330 328 329 328 328 326 324 321 320 321 321 322 322 322 321 320 317 316 315 314 313 313 313 312 311 310 309 310 309
329 330 331 329 328 326 326 325 324 321 320 319 319 319 318 314 311 310 310 311 313 312 311 310 308 308 307 306 305 305 306 304
331 330 329 328 325 323 324 321 318 319 319 318 319 311 311 312 312 312 310 312 312 311 310 306 305 304 303 303 303 303 304 304
332 330 327 328 325 324 324 323 323 321 318 317 310 311 312 312 313 313 312 311 310 308 306 304 302 302 302 302 302 302 302 302
332 330 328 327 326 325 324 321 321 318 318 316 312 313 313 312 312 311 310 309 307 306 305 303 302 302 301 300 300 299 302 301
330 329 328 326 324 325 324 321 319 316 315 312 313 312 312 312 311 309 307 305 302 303 303 302 301 301 300 300 300 299 299 300
330 327 325 325 325 323 321 317 316 315 315 315 314 313 312 311 309 307 303 301 302 303 303 302 302 300 300 299 299 299 299 299
328 327 326 325 322 320 319 317 316 315 316 315 314 313 311 310 307 304 303 304 304 303 303 302 301 301 300 299 299 299 298 298
327 324 324 322 319 318 317 317 317 317 315 314 313 310 308 306 305 304 304 304 303 303 302 302 302 301 300 299 298 298 298 298
324 323 321 320 319 318 318 318 316 315 313 311 309 308 306 304 304 304 303 303 302 301 301 301 301 299 300 299 298 297 297 297
321 320 319 318 318 318 318 317 316 312 309 308 307 306 304 303 303 303 303 302 301 300 301 301 300 297 299 298 297 297 297 296
319 319 318 318 317 315 313 312 309 309 308 307 306 304 304 303 303 302 301 300 300 299 299 299 299 298 298 297 297 297 295 295

GFSFLT2_850_thetae_057.txt.gz
Theta_e
334 333 332 331 331 328 319 315 313 314 311 311 313 315 315 315 315 315 314 314 313 313 312 313 314 318 320 318 321 319 319 321
333 333 332 330 325 320 316 312 313 312 312 316 315 316 316 317 315 315 315 315 314 314 314 314 319 322 321 320 321 321 319 320
331 332 330 322 318 315 312 313 313 312 317 320 321 325 326 322 320 324 323 322 320 322 320 321 322 322 321 321 321 320 319 318
331 327 322 318 316 311 313 314 313 318 328 328 324 328 325 328 326 327 326 326 325 323 323 322 322 322 321 320 320 319 317 318
329 328 325 318 310 312 314 319 321 324 328 329 328 328 326 328 328 328 328 326 324 324 324 324 322 322 321 319 319 318 317 317
330 328 327 323 317 321 323 324 325 327 330 329 330 327 329 328 328 326 326 325 325 324 324 323 322 321 320 319 318 316 316 315
330 323 324 323 325 324 327 329 329 328 327 325 327 327 326 325 325 323 324 324 322 323 323 322 321 320 319 318 316 314 313 313
317 317 321 324 324 324 325 328 329 329 327 327 324 323 323 323 323 323 323 323 322 320 318 315 314 313 312 313 314 313 312 311
314 318 326 327 325 326 327 327 326 327 326 322 320 321 321 322 322 321 320 314 310 310 309 309 308 307 305 305 305 306 305 305
322 328 328 328 326 327 326 326 325 323 320 319 318 318 317 315 312 310 311 310 309 309 308 306 304 302 301 300 302 302 300 300
327 330 330 328 327 325 325 325 323 320 319 319 318 312 311 312 312 311 310 310 309 308 306 303 302 300 299 300 299 299 299 299
329 329 328 328 325 324 323 324 324 321 318 318 315 311 312 312 312 311 311 310 309 306 303 302 301 301 300 300 299 298 299 301
330 329 329 329 327 325 324 324 323 323 320 316 314 312 312 311 311 310 309 308 306 302 302 302 301 300 300 299 298 299 297 299
331 330 329 327 326 325 321 321 319 317 316 314 312 313 312 312 311 310 309 306 302 300 300 300 300 301 301 299 299 298 299 298
331 330 329 325 323 324 322 319 316 315 315 314 313 314 314 313 311 309 305 303 302 301 301 301 302 302 301 300 300 299 299 298
330 329 324 325 325 324 319 316 316 315 315 315 315 314 314 312 309 305 303 303 303 303 303 302 302 302 302 301 300 299 298 298
328 322 325 325 322 320 319 317 316 316 316 315 314 312 309 307 306 304 304 304 304 303 302 302 301 301 301 300 298 299 299 298
326 324 325 321 319 319 318 318 316 316 315 313 311 309 307 306 304 304 303 303 303 302 301 300 300 300 300 300 297 299 298 297
327 325 322 321 319 318 317 317 316 315 314 312 310 309 307 306 304 303 303 303 302 300 300 300 299 298 298 299 298 298 297 297
323 322 321 320 319 318 318 318 316 314 311 309 308 307 307 305 303 303 302 300 299 296 296 296 296 297 299 298 297 297 296 296

GFSFLT2_850_thetae_060.txt.gz
Theta_e
330 331 328 328 330 328 318 314 312 312 310 312 314 314 315 315 315 314 314 313 313 313 313 314 319 320 319 319 320 320 319 320
327 326 326 331 329 319 314 311 313 310 312 315 315 315 315 315 315 315 315 315 315 315 314 315 318 320 319 320 320 320 320 318
326 326 330 329 320 315 311 311 311 313 316 317 321 322 321 322 325 324 324 322 322 321 321 321 321 321 320 320 320 320 319 318
327 328 328 321 316 311 310 313 314 318 320 323 327 324 325 326 327 327 326 325 322 322 323 322 322 321 322 321 319 318 318 317
326 324 325 317 313 310 312 312 325 329 329 328 327 324 325 328 327 327 326 325 324 323 323 322 322 322 321 320 319 318 317 316
326 325 318 313 310 311 313 316 324 329 329 328 326 327 329 328 327 326 326 324 324 324 323 322 322 321 320 319 319 317 315 314
328 327 322 314 313 314 317 325 324 327 328 328 329 329 328 326 325 324 323 324 323 323 323 322 321 319 316 314 314 314 313 312
329 326 322 319 319 322 324 326 325 325 326 325 326 326 325 324 324 323 323 323 322 320 313 310 309 308 307 307 306 306 306 306
328 324 323 323 322 324 325 327 328 329 328 326 322 320 321 321 322 322 321 318 310 310 308 307 305 303 302 300 300 301 300 300
322 322 322 323 323 324 325 327 327 327 325 320 319 318 318 320 318 312 311 310 309 308 306 304 302 301 299 299 299 298 299 299
317 319 323 326 325 326 327 327 326 323 320 319 318 315 311 311 311 311 310 310 309 308 305 302 301 300 300 299 299 298 298 299
316 320 323 328 327 327 327 326 324 321 321 317 314 312 312 312 312 311 310 309 308 305 301 300 300 300 299 299 299 298 298 297
319 323 326 328 327 326 326 323 323 323 320 314 312 313 312 312 312 311 310 308 304 301 301 300 299 299 299 300 299 298 298 299
327 328 328 328 328 325 323 324 323 322 319 315 314 313 312 313 312 311 308 305 303 302 301 300 299 300 301 301 300 299 299 298
329 329 329 329 328 326 323 322 320 317 316 314 312 312 313 314 313 309 308 306 303 302 302 302 302 302 302 301 301 300 299 298
330 329 329 328 326 323 319 316 316 316 315 314 314 315 315 314 311 310 308 306 303 303 303 302 302 301 300 300 300 300 298 298
331 330 327 325 324 322 322 316 316 315 315 315 315 315 312 309 308 307 305 304 303 303 303 302 301 299 299 300 300 299 298 297
330 325 324 325 325 323 320 317 316 315 315 315 314 311 310 308 307 304 304 303 303 303 302 300 298 299 299 298 298 298 298 297
324 325 326 325 321 321 320 317 316 316 315 315 313 310 307 305 306 305 303 303 302 300 298 296 295 295 296 296 298 298 298 297
324 325 326 320 319 319 318 317 316 315 313 309 307 307 308 311 308 304 302 302 298 295 293 293 293 294 295 297 297 297 295 295

GFSFLT2_850_thetae_063.txt.gz
Theta_e
331 330 331 330 330 328 319 313 313 310 311 312 314 314 313 313 313 313 313 312 312 313 315 318 317 319 319 319 320 319 319 318
330 331 328 327 325 322 314 312 311 310 313 314 315 315 315 315 315 315 315 315 314 314 315 318 320 320 320 320 320 320 319 318
329 323 323 326 326 316 312 313 311 313 315 316 317 317 320 320 322 320 320 320 320 319 319 319 320 320 320 320 319 318 317 317
324 326 325 329 318 313 313 311 313 315 321 321 324 323 325 325 325 324 324 323 322 322 321 321 321 320 321 321 320 318 318 317
323 319 318 318 316 313 313 313 316 321 324 327 325 325 326 326 326 326 325 324 323 322 322 322 322 321 321 321 320 319 318 317
322 323 326 323 314 314 312 317 321 325 326 326 326 323 324 327 327 326 326 324 323 323 323 323 322 320 321 320 318 317 315 313
322 324 327 318 314 313 315 323 326 326 327 327 326 325 326 327 325 325 324 324 323 323 322 321 320 316 311 309 308 308 309 310
326 325 319 313 314 315 316 319 322 326 326 328 326 327 326 325 325 324 323 323 323 321 315 310 307 306 304 303 301 301 301 301
328 326 319 315 318 317 321 321 321 322 325 326 326 325 323 323 323 323 322 319 311 309 307 306 305 303 301 299 298 298 298 298
328 327 322 321 322 322 323 324 326 328 328 326 321 320 320 321 322 320 311 310 309 309 308 306 302 300 299 298 298 298 298 297
329 325 322 323 323 322 324 327 329 329 325 320 318 318 318 317 313 311 310 310 310 309 305 302 300 299 298 298 298 298 298 298
328 325 322 322 324 325 326 327 327 323 320 319 317 314 312 311 311 311 311 310 309 305 303 301 299 299 299 299 298 298 298 298
323 317 319 323 325 327 327 327 325 321 320 318 314 313 312 312 312 312 312 309 306 304 303 301 300 300 300 299 299 299 299 298
319 316 319 325 327 327 326 326 324 322 320 317 316 314 313 312 313 313 310 308 306 305 303 302 301 301 301 300 300 299 298 299
318 317 321 324 327 327 326 324 322 322 320 318 316 314 312 312 313 310 308 306 305 305 303 302 302 302 301 300 300 299 300 297
326 323 324 326 328 327 326 324 324 322 319 316 313 313 313 313 310 308 307 305 305 305 303 302 302 302 300 298 299 299 299 298
328 328 328 328 328 327 325 322 318 316 316 314 314 314 313 310 308 306 306 305 305 304 303 302 301 299 298 297 297 298 298 298
328 328 328 328 328 327 324 321 316 315 315 314 314 313 312 310 308 306 307 310 306 303 302 300 297 295 294 294 295 296 298 298
328 328 328 328 327 324 323 322 317 316 315 315 314 313 311 309 305 309 309 304 302 301 298 294 293 292 293 293 294 296 297 296
328 328 326 324 324 324 322 320 318 316 315 315 314 311 311 308 310 308 303 302 299 296 294 293 292 293 294 294 295 295 295 295

GFSFLT2_850_thetae_066.txt.gz
Theta_e
334 330 329 330 322 321 318 313 311 311 311 312 313 312 313 312 311 312 312 313 314 317 317 317 319 319 319 319 319 319 319 318
331 329 328 324 325 320 314 312 310 311 312 314 313 313 314 314 313 313 313 313 313 315 318 320 320 320 320 320 319 318 318 317
330 328 325 320 322 316 313 311 311 313 314 314 315 315 315 315 315 316 316 316 317 317 319 320 321 321 320 320 320 319 318 317
330 325 321 321 323 316 312 311 313 315 315 316 317 319 320 322 321 321 321 321 321 321 321 321 321 321 321 321 320 319 318 317
322 322 324 326 319 313 312 311 315 316 320 321 322 324 324 325 325 324 324 323 323 322 322 322 321 321 321 320 320 318 317 315
320 319 318 322 318 314 312 314 316 323 324 324 323 325 326 326 326 325 325 324 323 323 323 322 322 321 319 319 315 312 309 309
319 318 319 320 317 314 313 318 322 324 327 327 324 323 326 326 325 326 324 324 323 323 322 321 320 314 308 306 304 302 301 300
321 323 325 327 315 314 315 319 326 326 326 326 326 326 325 325 324 324 323 323 322 321 317 310 307 305 302 301 300 299 299 299
322 324 326 324 315 313 319 327 326 326 327 327 326 325 325 324 324 323 323 322 318 310 308 307 304 302 300 299 298 298 298 298
326 325 322 316 315 317 320 321 323 325 325 326 326 323 322 321 321 322 320 311 309 310 309 305 302 301 299 298 297 297 297 297
328 329 324 317 319 323 325 325 324 324 327 326 323 320 318 319 320 316 310 310 310 309 306 304 302 299 298 298 297 297 298 297
327 328 326 321 322 324 324 326 326 327 327 321 318 318 318 317 312 311 311 311 310 308 306 304 301 300 300 300 298 298 298 298
328 329 326 323 323 324 323 325 327 326 322 319 319 317 314 311 311 311 312 311 309 307 305 303 302 301 301 301 299 298 298 298
328 327 326 323 322 323 324 326 326 324 321 320 316 313 312 312 312 313 310 307 307 306 305 304 302 302 301 301 300 298 298 297
325 325 322 321 320 324 326 326 325 321 321 319 316 314 312 312 312 310 307 307 306 306 306 304 302 302 301 299 298 297 298 297
325 325 321 320 321 324 326 326 324 323 322 320 317 314 312 312 312 308 308 307 308 308 305 303 302 301 299 296 296 296 299 298
326 325 321 320 321 325 326 325 324 323 322 319 315 313 313 312 312 309 308 307 309 309 303 302 300 296 294 293 293 294 295 297
326 325 323 319 323 326 326 325 324 320 319 316 314 313 313 313 311 311 309 308 310 307 302 300 295 293 292 293 293 294 295 297
324 324 325 325 325 327 326 324 323 318 315 315 314 314 314 313 311 306 306 309 305 302 298 295 294 292 292 293 293 293 293 292
324 324 325 326 326 327 326 325 322 320 316 315 314 314 313 312 309 308 309 302 300 297 296 295 293 292 293 293 293 293 293 291

GFSFLT2_850_thetae_069.txt.gz
Theta_e
333 330 328 330 319 314 313 312 310 311 311 311 312 311 311 313 313 314 314 315 316 317 318 319 319 319 319 319 319 318 318 317
332 329 331 324 321 316 313 312 311 310 311 312 312 312 311 312 313 313 314 315 316 319 320 319 319 320 320 319 319 319 318 317
331 331 326 324 322 319 313 311 310 311 313 312 313 312 312 312 312 313 314 314 318 320 320 320 321 320 320 320 320 319 318 316
330 327 324 323 319 315 312 310 311 313 313 313 314 314 314 314 315 317 318 320 320 321 321 321 321 321 321 320 320 318 316 315
327 320 318 316 315 315 313 312 314 314 315 315 316 318 320 320 321 321 322 322 322 322 322 322 321 322 320 318 318 314 310 309
320 320 317 313 313 314 312 314 315 315 316 318 321 323 324 325 325 325 324 323 323 323 323 322 322 321 319 312 307 305 303 302
321 319 320 323 318 313 312 315 315 318 322 323 324 325 325 326 326 325 325 324 323 323 322 322 319 311 307 305 303 302 300 299
321 318 317 319 320 316 312 316 323 324 325 326 324 323 326 325 324 325 324 323 323 322 320 311 308 306 304 302 301 300 299 298
318 318 322 326 323 316 314 318 324 326 327 326 325 324 324 324 324 324 323 322 321 313 308 308 306 303 302 300 299 298 298 298
319 323 323 326 322 316 315 319 326 324 324 324 324 325 324 323 322 323 322 317 309 310 308 306 305 303 300 299 299 298 297 297
323 324 325 324 317 314 317 325 325 322 323 325 325 323 321 320 322 320 313 310 310 310 309 308 305 301 300 300 299 298 297 297
326 328 326 320 316 318 323 324 324 323 324 325 324 322 318 319 320 314 310 311 311 310 309 308 305 302 301 301 300 299 298 298
326 328 328 324 317 322 324 325 324 324 324 325 321 318 318 318 312 311 311 312 310 309 309 308 305 303 302 302 300 298 298 298
325 327 327 327 322 321 323 323 324 325 324 320 318 318 316 312 311 311 312 311 309 308 307 306 305 304 302 301 301 300 297 296
326 328 327 327 325 322 323 324 325 325 321 319 319 316 313 312 312 312 312 309 308 308 308 308 306 303 301 299 299 298 298 297
326 327 327 325 325 323 322 324 325 324 323 321 320 315 313 312 312 312 310 308 306 309 308 306 304 301 298 295 293 294 297 297
324 326 327 326 324 323 322 325 325 324 322 320 318 315 313 312 312 312 309 308 308 309 308 304 301 298 294 293 293 293 293 296
325 325 326 326 325 322 320 325 325 324 322 320 318 315 314 313 313 312 308 309 308 309 304 301 297 295 293 292 292 295 296 297
324 325 325 326 325 323 321 322 324 324 323 321 319 316 314 313 313 311 309 306 309 308 301 297 296 294 293 292 293 293 293 294
322 324 326 324 324 324 321 324 325 323 320 317 316 315 314 313 312 311 308 310 308 301 298 297 295 294 293 293 293 293 293 293

GFSFLT2_850_thetae_075.txt.gz
Theta_e
326 325 325 328 326 327 322 316 313 311 310 309 311 311 311 314 315 316 316 318 317 318 318 318 318 319 319 319 318 320 321 320
328 327 326 327 327 322 316 313 311 310 309 311 312 311 312 314 316 316 316 316 317 317 318 318 319 319 320 320 319 320 319 318
327 328 330 329 323 318 315 315 311 309 311 311 311 313 314 315 315 315 317 317 318 319 319 320 320 320 321 319 317 317 316 315
329 332 331 325 317 317 316 312 311 313 312 311 312 313 316 314 315 317 317 318 320 320 320 320 320 319 318 317 316 312 312 312
330 331 327 322 318 314 314 315 322 316 318 317 316 320 320 313 314 315 318 320 321 321 320 320 319 319 319 313 310 310 309 308
330 329 326 320 317 316 312 315 319 314 315 322 323 319 317 315 320 321 321 321 321 320 320 322 322 320 310 307 307 307 307 307
324 323 320 318 313 312 314 315 313 312 318 321 317 319 326 325 325 324 323 322 321 320 320 318 317 308 308 307 307 306 306 307
322 320 318 316 316 316 315 312 313 315 317 319 318 325 325 326 325 324 323 322 321 320 317 313 310 309 309 308 306 305 305 303
322 321 321 317 314 313 312 312 313 312 313 315 322 324 326 325 325 324 323 321 320 320 313 310 309 309 309 308 307 306 305 304
319 319 317 316 316 314 316 321 315 317 319 321 324 326 325 325 325 323 321 322 318 313 311 310 311 310 310 308 307 306 305 304
319 317 317 318 320 320 321 320 312 319 320 324 326 325 324 325 324 322 322 319 314 312 312 312 311 310 309 309 309 307 306 304
320 320 321 320 322 321 319 322 321 323 323 325 326 325 324 324 323 321 320 316 314 312 312 311 312 311 311 310 310 308 306 305
322 324 322 323 324 324 323 324 322 323 325 325 324 325 324 324 322 321 317 315 313 312 312 312 312 312 311 312 311 309 307 306
323 326 327 327 325 323 322 324 324 325 325 323 323 323 323 323 322 319 316 315 312 312 312 313 313 311 311 310 310 309 307 306
325 327 328 328 326 323 324 325 326 325 325 326 323 324 323 322 320 318 315 314 313 312 312 313 313 312 310 309 308 307 305 305
327 328 329 328 328 325 325 326 327 326 326 325 323 324 322 321 319 317 315 314 313 313 313 313 312 311 309 308 306 305 304 304
327 328 328 329 329 327 326 326 325 326 326 324 324 323 320 319 317 316 315 313 313 312 311 310 310 310 307 304 304 303 302 302
328 328 328 329 330 329 329 328 327 326 324 323 323 321 320 317 316 315 314 313 312 311 308 310 311 310 305 303 302 301 301 302
329 330 330 330 331 331 329 329 327 325 322 321 324 323 318 317 316 315 314 312 311 309 310 310 310 305 303 302 300 301 301 301
330 330 330 330 330 329 331 328 327 325 323 321 322 323 319 318 316 314 313 311 309 309 310 308 307 303 302 301 301 300 300 300

GFSFLT2_850_thetae_078.txt.gz
Theta_e
334 338 337 336 335 331 324 325 324 319 313 309 310 312 315 317 316 316 316 317 318 318 317 317 318 319 318 315 320 320 320 320
338 337 337 336 330 326 326 322 317 312 309 310 311 314 315 316 316 316 316 317 318 318 318 318 319 319 319 318 319 318 317 318
324 330 332 330 328 325 319 315 312 310 311 312 312 314 314 315 316 316 315 316 317 318 319 319 320 320 318 317 317 315 314 314
326 329 328 328 324 318 314 312 311 311 312 313 316 314 314 315 315 315 316 317 319 319 320 320 320 320 318 317 311 312 311 311
328 327 330 326 318 315 315 312 314 314 313 315 315 313 314 314 316 316 318 319 320 321 320 320 320 320 320 313 309 309 309 308
327 329 328 324 316 313 310 310 311 312 315 318 313 318 315 316 314 317 320 320 321 321 320 320 320 321 311 308 308 308 307 307
329 324 321 320 320 315 314 312 311 317 322 314 314 314 313 314 317 319 321 321 321 321 321 322 321 310 309 309 308 308 307 308
326 321 321 321 316 315 313 312 316 318 317 314 316 322 325 325 324 323 323 322 322 321 319 318 311 310 310 310 309 308 307 307
322 321 321 319 318 317 316 314 314 315 314 316 322 321 325 325 324 323 323 322 321 320 317 312 310 309 309 309 309 308 307 304
321 320 318 314 313 314 315 316 315 314 315 317 318 320 323 324 324 324 323 322 321 320 315 310 311 310 310 309 308 307 307 306
320 318 318 317 316 315 316 314 315 315 316 317 319 321 325 325 325 324 323 321 319 316 312 312 311 311 310 309 309 309 307 305
319 318 316 318 317 314 318 320 318 317 317 317 321 323 324 323 324 324 322 319 316 312 312 312 312 312 311 311 311 311 309 306
316 315 316 317 318 318 320 321 316 313 314 320 322 325 325 324 324 323 321 317 316 312 312 312 312 312 312 313 313 311 310 308
319 320 321 320 322 322 320 321 317 318 321 322 323 325 324 324 324 322 320 316 315 313 312 313 314 313 311 311 311 310 309 308
323 324 323 323 323 324 323 323 323 320 321 323 323 322 322 323 323 322 319 316 315 313 313 314 314 313 312 311 309 308 307 305
322 324 326 325 326 325 322 323 325 322 322 324 322 321 323 324 323 322 318 316 315 313 313 313 313 312 311 310 307 306 305 305
322 324 326 327 326 326 323 324 324 323 323 324 324 323 323 324 322 320 318 316 314 313 313 313 313 312 311 310 306 305 304 303
324 327 329 328 328 326 325 326 326 326 325 324 324 323 323 323 321 319 317 316 314 313 313 312 311 311 311 307 304 303 302 302
328 327 327 329 330 328 327 326 326 327 326 325 324 322 324 322 320 318 317 315 313 313 313 311 310 310 309 307 304 302 301 301
327 328 327 328 329 329 328 327 328 327 327 324 323 320 322 323 321 317 316 315 314 313 311 309 309 308 306 304 302 301 300 301

GFSFLT2_850_thetae_081.txt.gz
Theta_e
330 339 338 335 332 331 328 324 324 322 316 309 310 314 317 318 318 318 317 316 316 317 317 318 318 315 321 320 319 319 320 320
325 332 337 335 333 331 325 324 324 317 310 309 312 317 318 318 318 317 316 316 317 317 318 319 319 316 319 319 317 317 316 316
325 330 336 334 332 326 324 324 318 311 309 312 315 318 318 317 316 316 316 316 317 318 318 319 320 319 315 317 315 314 314 313
325 327 332 332 327 325 323 316 312 310 312 315 316 317 317 316 316 316 316 316 318 318 320 320 319 319 316 313 312 312 311 310
328 326 328 330 325 321 316 312 311 312 314 316 314 315 316 315 315 316 317 318 319 320 320 320 319 319 319 311 310 310 309 309
329 329 329 324 320 316 313 311 311 314 316 314 314 315 316 315 315 316 317 319 320 320 320 320 320 320 318 308 308 309 308 308
329 329 327 323 318 314 312 312 310 313 313 314 318 315 315 314 315 316 318 320 321 321 321 321 320 320 310 311 310 309 308 308
328 326 323 321 318 315 313 311 312 316 318 316 314 317 314 313 314 317 319 321 321 322 322 321 318 310 310 310 309 307 307 306
328 327 322 319 315 314 312 312 313 319 318 316 320 318 314 313 317 319 322 322 322 322 321 316 311 310 311 310 309 308 308 307
325 324 322 316 317 316 314 314 321 318 317 317 319 317 324 322 322 322 323 322 322 321 320 316 310 311 311 310 309 310 309 307
322 322 318 319 319 315 315 316 315 316 317 319 319 320 321 322 323 324 323 322 322 321 319 312 311 311 310 309 309 311 310 308
322 320 318 317 316 313 315 315 315 315 316 315 315 317 320 322 324 324 323 322 322 321 317 311 312 311 311 310 311 312 311 310
320 319 318 316 314 314 315 315 315 315 315 316 316 318 321 323 324 323 323 322 321 318 312 312 312 312 312 312 312 312 312 311
318 317 317 317 316 314 316 315 316 317 316 316 317 320 322 323 323 323 323 321 319 316 313 312 312 312 313 311 312 311 311 310
315 315 315 314 313 315 316 318 318 316 314 315 316 321 322 323 323 324 323 321 319 317 314 312 312 313 313 313 311 309 309 308
316 318 319 319 319 319 319 320 322 319 319 317 321 322 322 322 323 323 322 321 318 317 316 312 314 314 313 312 312 311 308 306
321 323 324 323 322 321 324 323 322 322 322 319 321 322 322 323 323 323 322 322 318 316 316 312 313 314 313 312 312 309 305 304
320 323 324 325 325 324 325 324 322 322 323 321 321 323 322 322 323 323 322 321 319 317 315 313 313 313 312 311 310 306 305 304
321 321 323 324 326 324 326 324 322 323 324 324 323 321 323 323 323 323 322 321 318 316 314 314 313 312 310 310 308 305 304 302
324 322 323 325 326 327 325 324 323 324 325 326 325 324 324 323 323 323 321 319 318 315 314 313 313 311 310 309 307 307 307 303

GFSFLT2_850_thetae_084.txt.gz
Theta_e
330 328 328 330 332 327 326 324 324 321 313 309 311 317 321 320 317 315 315 316 316 316 315 319 321 320 320 320 320 320 319 317
327 326 325 332 331 327 325 324 323 319 311 309 313 319 318 320 318 316 316 316 317 317 318 315 319 320 319 318 317 316 315 314
326 325 324 330 332 328 326 324 321 313 309 311 316 321 320 320 318 317 316 317 317 318 319 319 316 319 318 317 316 314 313 311
328 332 334 330 329 327 324 320 314 309 311 316 319 319 319 318 317 317 316 317 317 318 319 320 319 315 314 313 312 312 310 309
327 326 331 330 327 324 321 316 311 310 313 317 318 318 318 317 317 317 317 317 318 319 320 319 319 319 315 309 310 310 309 309
328 329 327 324 325 321 317 313 311 313 316 318 318 315 316 315 316 317 317 318 319 320 320 320 319 319 317 309 309 309 309 308
326 329 324 325 327 323 314 312 312 313 316 316 315 315 315 316 315 317 317 319 320 320 320 320 320 320 317 309 310 310 309 308
328 327 328 327 324 317 315 315 314 317 316 315 314 315 315 315 316 317 316 320 320 321 321 321 321 319 310 311 310 310 309 308
329 328 326 323 319 319 316 314 312 314 313 314 315 315 315 315 315 315 317 319 321 321 321 321 319 311 311 310 310 310 310 308
329 327 324 322 316 316 313 313 316 313 315 318 319 315 314 313 314 314 317 320 322 322 321 319 315 310 311 310 310 311 310 308
326 325 324 321 317 313 313 315 319 315 316 316 315 320 316 317 318 316 320 322 322 322 320 319 315 311 311 310 309 309 311 311
324 322 322 319 313 313 315 314 314 318 316 315 317 317 321 321 322 323 322 323 322 321 320 319 313 311 311 310 309 309 311 311
322 321 319 316 316 316 312 314 316 319 316 316 319 321 320 321 321 322 323 323 323 322 321 320 312 311 310 311 311 312 312 311
321 321 319 319 319 318 315 317 317 316 316 316 317 317 317 319 322 323 324 324 322 321 321 319 312 312 311 311 312 312 311 311
321 320 318 318 317 314 313 314 315 316 315 316 316 316 317 320 322 322 323 323 323 322 320 317 314 312 312 312 311 312 311 311
319 319 317 317 315 314 315 316 315 315 315 315 316 316 317 320 321 322 323 323 323 322 319 317 314 312 312 313 313 312 311 309
317 316 317 316 316 315 316 316 315 317 317 316 313 313 315 319 322 323 323 323 323 321 319 317 315 312 312 313 313 311 311 309
315 315 315 315 314 314 315 315 315 316 315 315 317 318 318 321 322 323 323 323 323 321 319 317 316 313 313 313 313 312 311 308
316 318 320 319 318 319 318 318 319 320 321 321 322 319 320 321 322 322 323 323 323 322 321 317 315 313 313 313 312 311 310 306
318 320 322 324 324 324 322 322 322 322 322 322 321 321 319 318 323 322 322 323 323 320 319 316 314 313 313 313 311 310 306 305

GFSFLT2_850_thetae_087.txt.gz
Theta_e
332 333 332 330 327 326 326 326 323 323 312 311 314 318 319 315 315 315 318 321 322 321 321 321 321 321 321 320 319 317 315 311
327 328 331 332 328 329 326 326 324 318 311 313 321 319 319 315 315 315 317 321 321 319 320 321 320 320 319 318 317 315 312 310
330 329 329 330 332 330 326 326 319 314 310 314 327 321 319 316 315 316 316 316 316 316 316 320 320 319 319 317 315 313 311 309
327 327 326 326 330 328 328 326 322 313 311 326 328 325 319 317 316 316 317 317 318 318 317 316 317 319 317 314 312 311 309 309
327 328 329 330 325 327 327 325 321 314 314 325 326 324 320 318 316 317 317 317 318 319 319 319 317 314 311 310 310 310 309 309
328 326 327 329 325 328 326 326 319 316 315 317 321 323 320 320 317 316 317 317 318 319 319 319 319 318 314 309 309 309 309 308
328 326 327 327 327 326 325 320 318 314 316 318 320 321 318 316 315 316 316 318 318 319 320 319 319 319 315 309 310 310 308 308
328 326 326 327 326 324 318 315 314 313 318 320 319 316 316 315 316 316 316 318 319 320 320 320 320 319 311 311 311 310 309 308
327 325 325 327 325 323 318 314 315 317 319 317 315 315 315 315 315 317 315 319 320 320 320 321 320 317 310 311 310 310 311 309
327 327 326 326 324 318 315 318 318 321 319 317 316 315 316 315 315 316 317 319 320 321 321 321 319 310 311 311 310 311 310 309
328 327 327 326 320 317 319 319 318 317 316 316 316 316 315 315 316 317 317 319 320 321 322 321 314 310 311 311 310 310 311 311
326 327 326 323 319 318 318 316 314 314 317 320 316 316 316 315 317 318 317 319 321 322 322 319 317 312 311 311 310 310 311 312
324 325 325 322 318 317 315 319 315 314 316 318 316 315 315 317 319 319 320 320 322 322 321 320 319 314 311 310 310 310 311 311
324 323 324 320 318 315 315 321 319 315 316 316 315 315 317 319 321 322 322 322 323 322 322 320 319 314 312 311 310 310 311 311
322 322 321 320 317 314 313 316 316 319 316 315 315 317 317 318 319 320 322 322 323 323 322 321 320 317 312 311 311 311 312 312
320 320 320 319 316 315 316 314 314 315 317 316 316 316 318 318 318 321 322 323 323 323 323 321 321 319 314 312 311 312 311 311
320 320 320 319 319 318 318 316 315 318 317 316 316 316 317 316 317 320 321 322 322 323 323 322 321 318 315 313 312 312 312 312
318 318 318 318 318 317 315 315 315 316 315 315 315 315 315 316 315 317 320 321 322 323 323 322 321 318 316 312 312 312 312 312
317 317 317 317 317 316 314 315 316 316 315 316 315 315 316 316 314 317 320 322 322 322 323 322 321 318 316 313 313 313 312 310
315 315 315 315 316 316 315 315 316 317 317 316 316 315 313 313 315 318 319 321 321 322 323 322 322 317 315 313 314 313 313 311

GFSFLT2_850_thetae_090.txt.gz
Theta_e
332 331 328 325 324 324 324 323 324 319 316 319 313 319 317 315 319 320 321 320 321 321 321 322 322 321 319 318 315 312 310 309
329 330 333 327 327 326 325 324 324 323 319 316 315 320 316 315 319 321 321 321 321 321 320 321 321 320 318 316 313 311 310 309
329 328 330 331 330 327 325 325 327 325 321 322 322 320 315 315 320 321 321 321 321 321 320 320 320 319 317 315 312 310 310 310
330 328 327 330 331 328 326 327 326 326 325 324 323 320 315 316 320 321 320 320 320 319 320 320 319 318 316 313 311 310 310 310
329 330 328 327 327 331 327 325 325 327 322 325 323 319 316 316 318 317 317 316 315 315 316 317 318 315 312 310 310 310 309 309
327 327 327 327 328 331 329 326 327 326 322 327 324 319 316 316 316 317 317 318 318 318 318 317 315 312 310 309 309 309 309 309
326 327 326 327 328 330 328 326 325 323 326 325 326 320 315 316 317 317 317 318 318 319 319 319 318 315 311 309 309 310 309 308
328 326 326 327 327 328 327 325 323 324 323 326 327 320 317 316 316 317 317 317 318 319 319 319 319 318 310 310 310 310 309 308
328 326 327 326 327 327 325 325 323 319 322 320 323 321 319 316 315 316 316 318 319 320 319 319 319 319 310 310 310 310 311 309
327 325 326 326 327 326 327 324 320 312 318 318 319 320 317 315 316 316 315 318 319 320 320 320 320 318 310 310 310 311 310 308
326 326 326 324 326 326 325 321 315 316 317 317 320 317 318 318 318 316 316 318 319 320 321 321 320 314 310 310 310 311 310 311
327 327 325 326 325 323 320 317 317 319 320 320 316 315 319 320 318 317 316 318 319 320 321 321 319 314 310 310 310 310 311 312
325 326 325 325 323 318 317 322 321 323 322 321 315 320 321 318 318 317 316 318 319 320 321 321 318 314 310 310 310 310 310 310
324 322 323 324 319 317 317 320 319 320 317 314 314 315 317 317 316 317 316 318 319 320 322 321 319 317 314 311 310 310 310 311
324 323 324 323 320 316 316 317 319 320 317 315 315 316 316 315 315 316 318 320 321 321 322 322 321 319 318 313 311 311 311 311
322 322 323 323 320 318 316 316 316 316 314 317 318 316 316 315 318 319 321 322 321 322 322 322 322 321 319 316 313 312 312 311
321 321 321 321 321 319 316 318 318 317 315 315 316 317 315 316 318 318 319 320 321 322 323 322 322 322 321 320 316 312 311 311
320 320 320 320 320 319 317 314 314 315 316 316 316 314 315 317 318 319 317 317 320 321 322 322 323 322 321 320 318 314 312 311
320 320 320 320 319 318 316 316 316 316 316 316 315 316 316 316 316 317 316 316 316 318 320 321 322 322 321 321 316 313 314 313
317 317 319 319 319 319 319 318 317 317 317 317 316 316 316 315 316 316 315 315 314 315 317 321 322 322 322 322 319 317 315 314

GFSFLT2_850_thetae_096.txt.gz
Theta_e
329 328 324 324 335 336 334 336 334 333 330 322 316 314 322 323 319 321 321 319 321 321 319 318 317 313 309 309 310 318 320 319
328 328 323 329 330 333 332 333 333 333 326 318 315 317 319 319 321 322 323 321 322 321 320 318 317 313 311 310 310 315 320 320
328 326 324 328 328 329 330 332 333 330 321 318 318 320 320 321 326 322 321 322 323 322 321 318 316 313 311 310 315 319 319 320
328 329 327 325 326 327 325 325 331 325 319 321 324 320 322 329 324 321 321 321 322 322 321 318 316 313 311 312 319 319 319 319
330 329 330 326 329 326 327 327 327 325 320 317 326 325 326 327 324 321 321 321 322 322 322 319 321 319 315 319 318 319 319 319
329 330 329 333 330 327 330 329 326 326 324 322 326 326 327 324 324 325 322 323 323 323 322 323 322 320 317 316 318 319 319 318
329 329 329 329 330 330 329 328 328 326 327 323 326 326 326 322 324 326 326 326 325 325 324 320 317 313 316 315 318 318 319 318
327 326 326 326 329 329 329 326 327 328 330 325 325 325 320 320 323 324 325 326 325 324 322 319 314 313 311 311 315 317 318 318
328 327 328 327 326 326 327 328 327 326 328 325 321 319 318 315 319 322 322 323 322 322 318 317 314 312 310 310 311 315 316 317
327 328 325 326 325 325 325 327 328 327 326 326 325 320 317 314 319 321 320 320 319 318 318 317 316 314 312 311 312 311 314 317
327 327 325 324 325 326 327 326 327 327 325 326 325 321 317 315 320 320 316 317 318 318 318 318 318 315 313 312 312 312 312 315
326 326 325 325 325 326 326 326 326 326 325 326 322 320 318 316 320 317 317 318 318 318 318 319 318 316 314 312 312 312 311 313
326 326 326 326 326 324 325 326 326 327 326 324 324 321 318 317 316 316 317 318 318 319 319 319 320 317 312 312 310 310 310 310
326 326 326 326 326 324 325 325 326 326 325 324 322 324 317 316 316 317 317 318 318 319 319 318 320 320 316 312 312 311 309 309
325 325 325 325 326 324 324 325 325 324 323 321 320 323 318 316 316 316 316 317 317 318 319 319 320 320 318 314 315 316 316 312
324 324 322 324 325 325 324 324 323 319 318 320 319 322 322 321 318 317 318 317 317 318 319 317 319 320 317 317 315 317 317 317
323 323 322 324 324 325 325 323 316 315 318 318 316 318 318 320 318 317 321 318 317 316 316 316 319 319 318 317 316 314 315 315
323 323 322 323 323 323 323 319 315 314 317 319 318 318 320 319 317 316 317 317 316 316 315 316 318 319 320 319 318 318 317 316
321 322 322 323 323 322 321 318 315 315 317 323 322 320 319 317 316 316 316 316 315 316 316 318 319 320 320 321 321 321 320 318
320 321 322 323 323 323 320 320 318 318 320 320 320 318 317 316 316 316 314 315 316 317 318 318 319 318 317 318 318 318 319 319

GFSFLT2_850_thetae_099.txt.gz
Theta_e
328 327 329 328 324 323 333 336 335 331 326 323 323 321 325 328 327 318 313 311 315 312 312 310 309 308 308 313 320 321 321 321
329 327 329 325 325 326 325 338 335 332 326 325 321 322 324 328 320 316 313 314 318 315 316 314 310 309 309 313 320 321 321 320
326 328 328 324 325 325 326 330 334 332 329 324 320 325 320 324 325 318 317 319 320 318 317 314 311 310 310 316 321 321 321 320
332 328 325 329 325 326 328 333 333 331 328 323 324 324 325 329 325 325 321 321 321 319 317 315 312 310 313 319 321 321 321 320
329 330 325 327 328 324 329 330 326 334 329 325 326 322 326 329 326 327 323 322 322 320 318 316 319 317 318 322 321 321 321 320
329 330 329 327 328 328 329 328 326 332 330 325 326 324 327 329 327 324 322 323 322 321 319 322 322 320 321 321 321 321 320 320
329 330 330 331 330 332 330 329 327 330 326 325 328 324 325 327 327 324 326 326 323 323 323 325 324 321 321 321 321 320 320 320
329 329 330 330 330 331 330 329 326 328 325 324 326 324 326 326 326 326 326 327 326 325 324 324 323 320 320 320 320 320 320 320
328 328 328 328 329 330 330 329 328 327 325 324 323 324 327 324 326 326 326 326 326 325 326 323 321 319 319 319 319 319 320 320
328 328 328 328 327 327 330 330 329 328 328 325 323 325 328 324 326 326 326 326 327 325 324 321 319 317 316 316 317 318 319 320
328 327 327 326 326 326 326 327 328 328 328 327 323 324 326 324 324 322 326 326 325 324 322 319 318 317 316 315 315 315 318 319
327 328 327 326 325 327 325 325 326 327 329 328 325 322 322 322 316 318 323 324 323 322 320 319 319 319 317 316 316 315 316 317
327 326 325 325 326 326 325 326 326 328 328 327 327 323 322 317 314 322 322 322 320 319 319 320 320 319 317 316 316 315 314 315
327 326 326 325 326 325 325 327 327 327 328 327 327 324 321 320 320 320 320 319 319 319 320 321 320 319 318 317 316 314 313 311
326 327 326 325 326 325 326 326 327 327 328 327 327 326 318 319 317 320 318 319 319 319 320 320 320 318 317 318 317 317 317 314
324 325 325 326 326 325 326 325 325 325 326 326 326 322 317 315 319 319 317 319 320 318 318 319 320 319 319 319 318 319 320 318
325 324 324 325 325 324 325 323 325 325 324 324 322 319 318 318 319 317 316 319 321 318 317 318 319 319 319 318 318 318 318 317
327 323 323 324 325 325 324 323 324 324 324 322 321 323 322 318 317 317 317 318 319 318 317 318 317 318 319 320 319 319 319 318
324 325 323 324 324 325 325 325 325 323 321 320 320 320 322 321 319 318 319 320 320 319 317 317 317 316 317 317 319 320 320 320
323 323 323 323 324 323 322 322 322 320 320 321 319 319 319 319 320 320 319 317 317 317 317 316 317 318 319 320 319 320 320 319

GFSFLT2_850_thetae_102.txt.gz
Theta_e
323 323 324 325 332 334 335 335 333 333 331 326 325 331 326 329 328 321 315 312 310 310 310 309 308 311 317 320 322 322 321 321
324 323 325 325 327 330 329 329 323 326 332 326 324 328 331 329 328 321 312 310 311 310 310 308 308 312 317 321 322 321 321 319
329 328 326 326 328 328 326 325 325 323 332 327 331 327 331 329 325 315 311 312 312 312 311 310 309 310 317 320 321 321 320 320
333 332 330 327 326 325 326 324 325 325 333 325 326 329 329 328 320 313 314 314 315 315 312 310 310 312 320 321 322 322 321 320
332 330 329 326 325 325 325 325 324 328 331 326 327 330 329 326 321 314 318 317 317 316 313 312 310 314 320 321 321 322 321 320
333 331 330 326 327 326 327 324 330 333 331 329 332 329 326 326 322 316 319 319 318 316 314 312 310 317 322 322 321 321 321 321
331 330 331 328 327 326 327 328 326 330 331 330 328 327 325 327 324 323 320 321 319 317 316 321 320 319 322 321 321 321 321 320
332 330 330 331 331 328 329 330 328 326 327 331 328 325 326 327 325 325 322 322 320 318 322 324 323 321 321 321 321 321 320 319
330 329 330 331 333 331 330 331 328 326 329 328 327 324 325 327 326 325 323 323 322 320 324 325 324 321 320 320 320 320 320 320
330 329 330 329 329 331 331 330 328 326 325 326 325 324 325 327 324 323 323 326 324 323 325 324 322 320 320 320 320 320 320 320
329 328 328 329 329 329 329 330 329 328 328 327 325 325 325 326 324 324 326 326 326 325 325 323 320 319 318 317 318 319 319 320
327 328 328 327 327 326 327 328 330 330 328 327 325 324 324 326 324 325 326 326 325 326 325 322 319 317 316 315 315 316 317 319
326 327 327 327 326 324 326 326 328 329 329 327 325 324 326 325 325 325 325 325 324 325 323 320 318 317 317 316 316 315 315 317
327 327 326 326 324 326 324 324 325 326 330 328 327 325 325 324 325 324 324 324 324 323 322 319 320 319 318 316 316 316 315 315
326 327 326 326 325 325 325 326 326 326 326 329 327 325 324 324 324 320 321 318 323 323 321 320 321 320 319 317 318 316 317 316
327 327 325 326 326 325 325 327 327 327 326 326 327 326 325 322 320 317 315 317 321 320 319 320 321 320 319 318 318 320 320 318
326 327 327 326 326 325 325 326 327 328 327 327 328 326 324 321 319 316 315 320 319 320 318 320 320 321 320 319 319 319 319 319
325 326 327 325 325 325 325 325 326 326 326 327 327 327 325 320 320 314 319 319 320 317 319 318 319 321 319 318 318 318 317 317
327 324 327 324 326 325 325 325 325 324 324 324 323 323 322 319 317 315 317 319 318 316 316 319 319 318 318 319 320 317 318 318
327 325 325 324 325 325 324 324 324 324 324 323 323 321 319 318 317 315 316 318 316 315 319 319 317 317 316 316 316 318 318 319

GFSFLT2_850_thetae_105.txt.gz
Theta_e
325 325 324 326 327 333 337 338 336 334 332 327 330 328 325 322 327 327 314 311 310 308 309 316 321 323 323 324 323 323 321 318
325 323 323 324 325 327 336 337 336 335 333 327 329 329 327 329 328 322 313 310 309 309 308 312 320 321 321 322 322 321 321 313
333 329 329 327 325 326 327 330 332 332 332 327 329 329 326 328 330 321 311 309 310 310 308 309 313 320 321 321 321 321 319 310
334 333 332 327 327 326 327 328 330 332 329 326 328 327 322 328 330 319 309 309 310 309 309 310 317 321 321 321 320 321 320 319
334 334 332 328 328 326 324 325 324 326 327 323 326 327 327 330 327 314 310 310 310 309 309 310 315 320 322 322 321 321 321 321
334 334 330 328 326 325 325 325 324 325 325 325 323 329 326 331 325 312 311 312 312 310 310 311 319 321 321 322 322 321 321 320
333 332 329 329 326 326 327 327 327 327 326 327 327 325 325 330 319 313 313 314 314 311 310 311 319 320 320 321 321 321 321 320
332 329 329 331 327 327 326 327 327 329 327 328 326 325 330 327 318 314 315 317 316 313 311 312 320 321 321 321 321 321 320 320
332 328 330 331 331 328 327 329 326 329 328 328 326 330 328 325 317 316 318 318 316 314 315 316 318 321 321 321 321 320 320 319
330 328 329 330 330 330 328 330 328 328 330 328 328 327 326 326 319 317 320 319 317 319 321 322 322 320 319 321 321 321 320 320
330 327 328 329 330 330 331 331 328 326 327 329 327 325 325 326 324 322 320 321 319 321 325 324 323 322 319 320 320 320 320 320
329 327 328 328 328 328 330 330 329 327 328 328 327 325 324 324 324 324 322 322 321 323 325 324 323 320 319 319 319 319 319 320
324 327 327 328 328 328 328 329 330 328 328 326 324 324 323 323 324 323 322 322 323 323 326 324 322 319 317 316 317 317 318 319
323 326 328 327 326 325 325 326 328 328 328 326 325 325 324 323 324 323 323 323 323 324 325 323 320 317 316 315 315 315 315 316
324 327 327 326 325 323 325 324 325 327 329 328 326 325 325 324 324 324 324 324 325 325 324 323 319 317 318 316 316 316 316 315
325 329 326 325 326 326 325 324 325 325 326 328 327 325 325 322 325 326 326 325 325 324 323 322 319 319 319 316 317 318 317 317
323 328 329 325 325 324 324 324 325 326 325 327 327 326 325 326 325 325 325 325 323 322 319 321 320 320 319 318 317 318 319 319
322 328 326 325 326 325 325 325 326 327 327 326 326 325 324 326 324 324 324 321 320 321 321 320 320 319 319 320 318 318 319 318
322 327 326 326 325 325 325 325 327 327 327 326 325 324 324 326 325 324 319 317 317 317 318 319 317 317 320 316 319 318 319 319
320 325 325 325 324 327 324 324 325 326 325 326 325 326 324 325 324 323 320 317 316 318 319 318 315 318 319 318 319 318 316 315

GFSFLT2_850_thetae_108.txt.gz
Theta_e
323 325 325 327 327 334 337 338 334 334 329 329 325 328 328 319 318 324 323 313 311 311 319 324 327 328 325 324 325 324 322 317
324 325 324 324 324 327 333 336 336 334 332 329 327 326 325 323 319 319 318 311 311 314 320 325 324 324 325 325 323 322 319 311
329 329 329 324 325 325 328 339 336 335 333 331 329 327 326 324 322 323 315 311 310 314 322 323 322 324 324 322 321 321 319 307
332 333 333 332 331 327 326 331 333 333 333 332 329 327 328 327 329 326 312 309 309 314 322 321 321 321 322 322 321 320 312 307
333 333 333 333 331 327 327 326 327 328 328 330 329 328 328 326 330 328 311 308 309 314 321 320 321 321 321 321 320 320 320 316
333 334 334 333 327 327 326 325 325 325 329 328 330 325 326 330 327 327 311 308 308 312 318 319 321 321 321 321 320 320 320 320
333 334 333 332 326 326 324 325 325 326 325 328 328 326 326 327 330 327 310 309 309 309 314 317 321 321 321 321 321 321 321 319
333 333 332 327 329 326 326 326 328 325 325 325 327 326 326 324 328 323 309 309 308 308 310 317 320 321 321 321 321 321 320 320
333 331 331 326 330 327 327 328 327 327 325 325 323 323 328 328 329 318 309 309 309 309 310 319 320 321 320 320 321 321 320 320
332 332 330 326 329 330 328 327 329 328 327 325 324 324 324 326 329 315 310 311 311 310 311 320 321 321 320 320 321 320 320 319
332 331 327 326 329 329 330 328 328 327 328 327 326 325 324 325 329 314 312 314 313 311 312 320 321 320 321 321 320 320 320 320
332 330 324 325 328 329 329 331 327 328 327 328 327 327 327 324 327 314 314 316 314 313 311 314 317 318 320 320 320 320 320 320
331 328 323 326 328 328 329 330 327 330 328 328 327 327 327 326 325 315 316 317 316 315 319 322 322 322 319 320 319 320 320 320
330 322 324 326 327 328 329 329 329 327 327 327 327 326 327 326 325 317 317 319 318 318 322 324 323 322 319 319 319 318 319 319
328 321 323 326 327 327 327 328 329 328 327 328 328 326 326 326 325 323 319 320 319 319 323 325 324 321 319 317 316 315 316 317
322 323 324 326 326 326 325 325 327 330 328 328 329 328 325 325 325 324 325 321 321 320 323 325 324 321 318 315 315 316 316 316
321 324 325 326 326 324 323 324 324 326 328 329 327 327 326 325 325 323 325 323 322 323 323 325 324 320 317 316 316 317 317 318
321 324 324 324 324 326 326 326 323 326 325 325 327 327 327 326 324 323 325 324 323 324 324 323 323 320 317 317 317 317 318 318
321 323 323 326 325 325 325 324 324 325 326 326 325 326 327 327 324 325 324 325 323 324 325 323 321 319 319 318 317 318 318 318
321 321 322 324 326 324 324 325 324 327 326 327 326 326 326 325 326 324 325 325 325 324 324 321 319 318 320 317 318 318 319 318

GFSFLT2_850_thetae_111.txt.gz
Theta_e
323 324 325 327 329 331 332 334 335 332 331 329 327 324 327 326 326 326 318 328 321 316 312 314 319 323 325 324 325 324 321 312
323 324 325 326 327 327 332 333 336 334 332 327 324 325 327 326 326 327 319 315 314 314 317 324 324 321 324 326 325 323 316 314
324 325 325 325 325 325 326 329 336 335 333 329 327 326 328 327 323 326 326 312 312 316 325 326 326 324 324 325 322 320 315 312
326 327 327 329 326 326 326 326 331 335 334 333 329 327 328 325 324 322 326 312 313 319 326 327 326 323 324 323 321 320 316 307
327 329 332 333 332 331 331 327 329 332 334 332 330 327 328 325 325 322 327 313 315 324 326 324 323 323 323 321 321 316 308 307
329 332 334 333 333 332 328 325 327 328 332 332 331 327 327 326 324 321 327 313 318 324 324 321 322 321 321 321 320 320 319 312
330 332 334 334 333 332 326 326 327 326 328 331 328 330 327 326 327 318 328 312 316 323 321 320 321 321 321 321 320 320 320 318
331 332 334 334 333 329 326 325 324 324 325 326 328 329 327 327 326 322 328 312 312 322 320 320 320 320 320 320 320 320 320 319
330 332 334 333 329 327 326 325 325 326 327 327 327 329 327 327 325 322 328 310 309 320 320 320 320 320 320 321 321 321 320 319
331 333 333 331 327 328 327 327 326 327 328 326 328 328 326 327 327 321 328 310 309 316 319 320 320 320 321 321 321 321 320 319
332 333 331 330 326 328 330 328 327 328 328 326 325 327 326 327 327 324 328 311 308 311 315 319 320 321 321 320 320 320 320 319
333 332 331 328 325 328 329 329 328 328 327 326 325 327 326 325 324 326 327 310 308 309 313 319 320 321 320 320 320 320 320 320
332 332 330 326 324 328 328 329 330 327 328 326 324 326 325 324 327 325 326 309 308 308 310 318 320 321 321 320 320 320 320 320
332 331 330 324 324 328 328 329 329 327 328 326 324 325 324 324 324 325 325 310 309 308 310 318 320 320 320 320 320 320 320 320
331 331 329 323 326 327 327 329 328 329 327 328 327 326 325 324 325 325 325 311 312 310 310 316 318 319 320 320 318 319 319 319
331 330 327 322 326 327 327 330 328 328 329 327 329 327 325 325 327 325 326 313 314 313 311 311 315 321 321 319 318 317 317 317
331 329 323 323 326 327 327 327 330 328 327 328 327 326 326 327 325 327 326 317 314 316 314 318 321 321 322 320 318 316 315 316
330 329 321 323 326 326 325 325 325 328 328 327 327 327 327 327 326 327 326 321 315 317 316 320 324 323 323 320 318 316 317 316
330 327 321 324 329 325 324 323 322 324 325 327 328 328 328 327 326 328 326 326 318 318 317 319 324 324 323 319 316 316 317 317
330 325 321 325 325 326 323 324 324 323 323 324 324 326 327 328 328 326 326 326 324 324 320 319 322 323 322 319 317 316 317 317

GFSFLT2_850_thetae_114.txt.gz
Theta_e
322 324 327 327 327 331 332 333 332 329 327 327 325 326 324 324 326 323 324 326 327 329 326 324 323 318 313 314 318 319 317 316
324 324 327 328 328 329 331 333 333 331 328 329 327 325 324 326 326 325 324 325 328 325 320 320 314 314 320 323 324 322 317 314
325 325 326 327 329 327 331 335 335 333 331 330 330 327 324 325 324 323 322 325 327 321 316 313 318 323 324 324 324 321 318 313
325 324 326 326 327 327 327 331 335 335 334 332 331 326 324 324 326 328 323 325 325 316 315 318 323 324 325 324 321 319 317 312
326 325 326 326 326 326 325 326 331 334 335 334 331 327 324 327 327 324 323 325 323 319 323 324 325 324 324 322 321 319 313 309
327 326 327 328 330 331 330 329 330 334 332 334 332 328 327 327 326 324 325 324 316 322 325 326 326 324 324 320 320 312 307 307
327 327 327 329 331 332 332 332 330 331 331 333 332 331 328 327 327 325 325 323 312 321 326 327 325 323 323 321 319 319 318 310
328 328 328 330 332 333 333 332 329 327 328 330 331 330 328 328 327 324 324 322 311 318 326 326 322 322 322 321 320 320 319 315
327 329 329 331 333 334 332 330 326 326 327 327 328 330 329 327 327 325 321 321 313 319 325 322 321 321 321 320 319 320 320 318
326 330 330 332 334 333 330 327 326 324 324 325 327 328 329 327 327 325 322 324 314 320 323 320 320 320 320 320 320 320 320 319
320 329 329 331 334 331 327 327 326 326 325 327 327 327 328 327 328 326 325 326 313 317 323 319 320 320 320 320 320 320 320 319
318 328 330 332 332 329 326 329 327 326 326 327 328 327 327 327 327 327 321 325 314 314 322 319 320 320 320 320 320 320 320 319
320 327 331 333 331 327 325 328 329 328 328 326 326 326 326 328 327 327 322 326 314 310 321 319 319 320 321 320 320 320 320 319
323 329 331 332 330 326 325 328 329 329 328 328 326 325 325 327 326 326 320 326 317 309 318 319 318 320 320 320 320 320 319 319
326 331 331 331 329 324 326 328 328 329 327 327 324 326 327 327 326 327 325 326 318 308 311 316 318 320 321 320 320 320 320 320
330 332 332 331 328 324 326 328 328 328 327 326 325 326 326 325 325 325 325 326 317 308 309 313 317 320 321 320 319 319 319 319
329 332 332 330 326 324 326 327 327 328 327 329 326 325 325 325 324 325 324 326 323 309 308 309 316 319 320 320 319 318 317 317
330 332 331 330 326 325 325 327 328 327 328 327 329 328 326 326 324 324 323 324 326 312 309 308 312 319 319 318 319 318 316 316
329 332 331 329 325 325 325 327 326 327 327 327 328 328 328 326 325 325 325 326 325 322 310 310 309 317 318 316 320 319 316 316
328 331 330 328 324 322 324 326 326 326 327 326 327 327 327 325 326 326 326 325 325 326 314 312 310 312 317 321 320 318 316 316

GFSFLT2_850_thetae_117.txt.gz
Theta_e
323 324 322 322 322 330 331 330 329 328 329 332 328 330 331 325 328 325 324 327 325 329 329 327 330 329 327 326 325 324 320 320
323 324 325 324 324 324 331 331 331 329 330 328 328 330 325 324 325 325 323 322 325 327 328 328 328 327 324 320 318 317 317 316
324 325 326 326 326 326 326 330 332 331 330 329 329 328 326 326 323 325 324 323 323 326 327 328 327 321 315 319 322 321 317 315
323 325 327 327 328 327 328 328 333 333 331 330 328 328 326 324 325 326 324 323 322 324 326 325 318 319 323 324 323 319 315 312
324 324 327 328 327 327 328 327 332 334 333 331 330 328 326 324 325 324 324 323 320 322 325 320 320 323 324 324 320 318 317 312
326 326 327 327 328 328 326 327 331 335 334 334 332 330 329 327 324 325 325 326 321 322 320 320 324 324 325 323 321 319 315 313
327 327 327 328 328 328 328 328 328 334 335 334 333 331 331 327 325 326 327 326 324 321 317 321 325 324 324 322 320 311 308 310
322 326 329 329 328 328 329 330 329 331 334 332 332 331 331 327 325 327 325 323 325 317 314 323 326 326 324 322 319 317 312 310
318 319 326 329 329 329 330 331 332 331 331 329 328 330 330 327 328 327 325 324 325 318 319 325 327 324 324 322 319 319 316 312
316 319 319 328 330 329 331 332 333 332 329 327 328 329 330 329 328 327 327 325 325 316 316 325 327 322 323 321 319 319 318 315
316 319 319 322 331 329 331 334 333 329 326 325 326 329 330 329 329 327 327 325 325 316 318 322 325 321 322 321 319 319 318 318
317 319 319 322 330 330 333 334 330 326 326 324 324 327 327 327 327 327 327 325 326 316 317 325 323 321 321 320 319 319 319 318
319 320 319 323 330 331 333 332 328 326 327 326 325 326 326 327 328 327 328 326 325 318 319 324 320 320 320 320 319 319 319 318
321 322 322 325 330 331 332 331 325 326 328 328 327 327 326 326 327 327 327 326 322 321 316 323 320 320 320 320 318 319 319 319
321 324 325 329 331 333 331 328 323 327 328 328 328 327 326 325 327 327 326 327 324 322 317 322 320 319 320 321 320 321 319 319
321 326 328 330 332 332 330 324 326 329 327 328 328 325 325 325 325 326 327 327 323 324 312 321 321 319 320 320 320 320 320 319
323 326 329 332 332 331 330 322 327 328 326 329 325 324 325 325 325 326 327 326 321 324 311 319 321 319 319 320 320 319 319 318
324 326 330 333 331 331 329 322 327 328 328 327 326 325 326 326 326 326 326 323 321 325 313 310 317 320 318 320 320 319 318 318
325 326 329 332 331 329 327 323 326 327 326 326 328 326 325 326 325 324 325 325 323 326 316 309 310 315 317 319 320 320 318 317
326 327 329 331 330 329 325 324 325 326 327 326 326 328 326 326 325 324 324 325 324 325 319 309 309 310 313 317 319 320 319 318

GFSFLT2_850_thetae_120.txt.gz
Theta_e
321 322 322 324 327 331 331 330 329 327 328 329 333 335 331 326 329 322 326 329 322 325 328 328 328 331 331 329 328 328 327 326
323 322 323 323 325 329 332 331 330 328 328 329 332 335 329 328 329 325 325 323 322 322 329 329 330 331 330 329 328 326 325 325
325 322 323 324 325 326 331 332 331 330 329 330 332 330 330 332 327 325 325 323 320 320 324 328 330 330 328 327 324 324 324 324
327 324 323 325 326 326 329 332 332 331 331 330 334 333 333 333 331 327 325 323 322 325 323 323 329 328 326 320 324 325 323 323
330 327 324 326 326 328 329 332 335 335 336 334 333 335 333 332 331 325 324 324 324 325 326 325 328 326 324 325 326 325 323 322
337 328 326 326 328 329 329 333 334 335 334 334 333 333 332 331 331 325 325 326 325 326 324 323 326 324 325 327 325 323 322 321
327 327 327 328 327 330 331 331 333 335 331 334 333 332 331 330 328 325 326 326 327 326 326 327 326 326 328 327 325 323 322 320
327 319 322 326 328 329 330 331 330 333 329 330 333 333 332 330 327 327 326 329 328 326 327 327 326 326 327 326 325 321 320 320
325 319 316 320 323 329 331 330 330 331 330 330 334 334 334 331 328 329 327 327 329 327 325 325 326 327 327 325 323 321 319 320
320 323 316 317 323 332 331 331 330 330 330 331 332 333 333 332 331 330 326 325 326 325 324 326 325 327 326 325 323 322 321 320
318 317 316 317 321 334 335 331 330 331 330 333 332 331 331 328 331 329 328 325 326 324 323 323 325 326 326 324 322 322 322 320
316 314 315 322 327 333 334 331 330 331 332 332 331 329 327 330 329 329 327 326 326 323 323 323 324 325 324 323 322 323 323 321
317 318 318 325 328 332 333 332 331 331 333 332 326 326 327 327 329 327 328 328 326 324 322 323 324 323 323 322 323 323 323 322
322 324 326 329 328 332 331 331 331 332 333 328 324 325 325 326 330 326 328 328 327 326 322 323 324 324 323 322 322 322 323 322
328 329 330 328 331 329 331 330 331 333 330 324 327 327 327 327 326 327 327 327 326 326 323 321 323 324 323 321 322 322 322 322
329 330 324 327 329 330 331 331 332 332 326 323 328 328 328 329 326 326 325 326 326 326 323 319 322 323 323 322 321 321 322 322
329 330 323 329 332 332 333 333 332 328 322 326 329 327 327 326 325 324 325 326 326 325 323 321 322 322 323 323 322 323 322 322
324 325 328 330 332 334 333 333 331 326 327 329 327 328 325 326 325 325 325 325 326 325 324 321 321 322 322 322 322 322 322 322
324 324 329 331 332 332 331 330 328 325 329 327 327 327 325 326 326 325 324 325 326 325 323 321 320 321 321 322 321 321 320 321
325 326 326 328 327 332 331 329 326 327 327 329 327 327 326 325 326 325 325 325 325 324 325 322 317 319 321 322 321 321 321 320

GFSFLT2_850_thetae_123.txt.gz
Theta_e
323 321 322 322 322 324 328 330 329 328 328 334 336 338 336 334 330 329 324 326 323 323 328 328 329 328 330 328 327 325 328 328
327 323 322 323 322 323 327 331 330 328 328 333 335 335 336 335 329 330 325 325 324 327 326 327 328 329 330 329 327 326 328 326
329 325 323 323 323 323 324 330 331 330 329 330 331 335 336 335 329 330 326 325 326 324 326 327 326 330 330 329 325 324 326 324
339 332 326 324 324 324 324 327 331 331 330 331 330 335 336 336 333 330 327 327 324 324 325 325 325 327 329 328 319 325 324 325
343 344 332 328 328 325 325 333 332 334 336 337 334 334 336 335 334 333 328 326 325 325 325 326 328 328 327 326 326 325 324 325
342 344 343 334 338 328 327 332 338 338 338 337 336 333 335 335 333 333 331 329 327 324 325 324 326 329 327 325 326 324 323 325
338 343 344 340 339 330 327 337 333 338 339 337 336 336 335 334 333 332 331 331 327 325 324 323 328 325 325 325 326 325 323 323
335 339 343 336 336 329 328 329 340 335 339 338 337 336 336 334 332 332 331 330 327 326 324 326 328 326 325 325 325 324 322 323
327 333 337 341 330 328 331 329 334 340 338 337 337 336 335 334 332 332 331 328 326 325 327 325 326 326 324 325 325 323 321 322
321 321 328 336 339 331 328 329 332 337 338 336 333 335 335 334 333 332 331 328 327 327 328 327 327 326 326 325 324 322 321 322
319 320 321 326 334 339 336 328 332 334 337 335 330 334 334 335 333 332 331 328 327 328 327 326 325 325 325 325 324 322 321 320
321 321 321 323 328 335 338 338 335 338 336 337 335 334 334 334 333 332 331 330 330 328 326 324 326 325 325 325 323 322 322 321
325 325 323 322 326 332 336 338 337 336 338 335 336 335 333 333 332 331 331 328 329 327 326 323 325 326 324 323 322 322 322 321
329 329 329 329 328 332 335 336 335 336 336 333 332 333 332 329 329 328 328 329 327 327 326 324 323 325 324 323 322 322 322 322
331 330 330 332 332 334 335 334 333 334 334 331 331 332 330 329 327 327 329 328 328 327 327 323 322 323 323 323 323 323 322 321
332 332 332 333 333 334 332 332 331 332 334 332 332 332 327 328 328 328 328 329 329 327 327 323 323 323 323 323 322 322 323 323
329 332 333 333 332 334 332 331 331 332 332 331 333 329 328 329 329 329 328 329 326 327 326 326 321 324 323 323 322 322 322 322
326 328 330 331 333 330 332 330 334 334 334 332 329 329 329 329 329 328 327 327 325 325 326 326 318 323 323 323 322 323 323 323
328 327 328 330 331 331 332 332 333 334 333 328 329 329 328 327 327 325 326 325 325 325 325 325 318 324 323 323 324 322 324 324
325 327 328 328 327 330 332 332 333 333 333 331 331 329 327 327 325 327 325 324 324 325 324 325 321 322 322 323 324 323 323 323

GFSFLT2_850_thetae_126.txt.gz
Theta_e
323 321 322 322 322 321 323 325 329 329 328 331 338 338 337 335 334 329 328 323 324 327 323 323 328 329 328 320 327 329 330 331
323 322 321 322 322 322 322 324 328 330 329 328 333 335 337 335 334 330 326 324 325 323 323 323 324 326 329 324 324 327 330 329
327 324 323 322 322 322 322 324 327 330 329 328 330 334 336 336 334 332 328 326 325 324 325 325 324 325 326 327 319 327 328 330
332 324 325 323 322 322 322 323 324 329 330 329 329 332 334 335 335 332 330 326 326 327 325 325 323 324 324 327 319 326 327 327
333 329 327 329 325 323 323 323 324 326 329 330 329 330 335 335 335 333 330 328 328 326 324 325 324 324 327 324 321 326 327 326
335 339 332 334 330 327 324 324 324 324 327 329 333 331 334 335 335 334 332 329 328 326 324 325 325 325 326 320 326 325 325 324
336 340 339 337 339 330 327 326 326 326 325 327 334 335 333 335 336 334 333 332 329 327 325 325 326 324 325 321 324 324 325 324
337 339 341 341 338 336 329 328 330 333 333 333 335 336 335 334 335 335 334 331 330 327 325 325 324 325 327 320 324 325 324 323
329 333 339 341 340 340 336 331 336 335 336 338 339 336 337 335 335 334 333 332 330 329 326 325 324 326 326 322 324 325 323 322
327 328 329 335 334 335 331 326 332 342 340 338 338 337 338 336 335 334 333 331 330 329 327 326 324 327 326 323 324 324 322 322
322 322 325 329 328 328 327 329 325 331 342 341 338 337 338 337 335 335 333 332 331 330 326 326 325 326 326 323 324 323 321 323
320 319 319 321 329 332 335 334 334 329 333 340 339 337 337 336 336 335 334 332 332 329 327 327 325 326 324 323 325 322 321 322
320 318 318 319 321 330 335 338 331 335 334 337 340 338 335 335 335 335 334 333 332 330 328 326 325 326 325 323 324 322 321 320
324 327 328 327 327 323 328 333 338 336 335 335 336 339 336 335 337 334 332 331 331 329 329 327 326 325 325 323 324 322 321 321
329 331 331 330 329 329 327 333 338 337 336 334 333 336 337 335 334 333 331 329 329 328 330 328 326 325 325 323 323 322 322 321
329 332 333 332 331 331 332 332 335 336 335 333 332 338 336 336 334 332 332 332 330 329 328 327 327 324 326 323 322 322 322 322
326 325 333 333 334 333 335 334 334 335 332 331 331 332 335 335 334 330 328 328 327 330 328 326 327 323 324 324 322 322 321 322
328 328 327 328 331 332 334 334 333 331 330 330 330 332 332 334 330 328 329 328 328 328 327 328 327 325 323 324 323 322 322 322
322 327 327 328 326 329 330 333 331 330 332 333 331 331 331 332 329 330 329 329 328 328 327 327 327 325 321 324 323 322 322 322
321 321 328 329 328 327 328 330 331 331 335 332 332 332 330 330 329 330 331 328 327 325 327 326 325 326 321 323 323 322 324 323

GFSFLT2_850_thetae_132.txt.gz
Theta_e
321 321 321 320 319 319 320 323 327 328 329 332 334 335 336 335 331 328 327 324 324 324 328 325 324 326 327 327 330 330 331 327
321 321 322 322 321 320 320 322 324 327 328 329 331 334 335 336 334 329 330 324 325 326 328 323 321 325 324 328 328 329 328 327
323 321 321 322 322 321 320 321 323 325 327 328 329 332 333 334 334 334 331 325 325 326 325 323 323 325 324 326 327 328 330 329
330 327 322 321 322 322 322 321 321 323 324 326 327 328 330 333 334 334 332 327 325 324 323 323 324 322 322 323 326 327 327 328
332 331 328 321 321 322 322 322 322 322 323 323 325 327 330 331 334 334 333 329 326 324 323 324 325 324 324 325 324 326 326 328
333 332 331 328 322 321 321 322 322 322 322 323 324 325 328 329 331 333 333 332 327 326 325 324 323 322 324 323 324 325 325 328
330 331 331 329 326 323 322 322 322 322 323 323 323 324 326 328 329 331 333 333 330 328 327 325 323 323 324 320 324 323 325 327
331 332 332 330 327 325 325 324 323 323 323 324 324 325 326 328 329 331 332 333 332 330 328 326 324 324 323 323 324 323 326 326
330 330 331 333 333 332 332 329 327 326 325 325 326 326 327 328 329 330 332 332 333 331 329 327 327 325 325 325 324 324 326 326
322 327 330 332 334 334 334 336 335 331 330 327 328 328 329 330 332 332 332 333 333 332 331 327 326 325 325 325 324 325 325 326
321 322 326 329 333 334 338 336 337 335 330 329 332 334 333 333 334 335 335 334 333 333 332 330 327 326 325 326 323 325 326 325
322 322 326 331 335 336 334 332 331 335 332 331 330 338 337 337 336 336 336 335 334 333 332 330 328 326 325 324 323 324 325 324
322 325 330 333 333 334 332 331 330 331 334 331 329 334 336 337 339 335 336 335 335 332 332 331 329 326 325 324 321 324 325 323
323 324 325 328 332 332 332 331 328 328 332 334 331 331 332 335 336 336 335 335 334 334 332 331 330 328 326 326 325 324 324 323
321 321 323 325 327 328 328 327 327 329 333 335 334 332 334 333 334 334 335 336 334 333 332 332 331 329 327 325 324 323 324 323
324 324 322 322 325 327 330 330 329 328 327 325 329 332 330 333 332 334 334 335 336 334 333 331 330 328 327 325 324 324 323 322
322 321 319 317 321 331 333 332 329 328 329 329 328 329 328 332 333 333 334 334 335 334 332 332 330 327 327 326 324 323 323 322
320 317 316 315 325 328 327 327 331 332 332 332 330 330 332 331 330 331 334 334 333 333 331 331 330 328 327 327 326 324 322 322
316 313 314 324 326 328 328 326 325 328 332 332 332 331 333 333 331 331 332 332 332 331 330 330 329 324 327 327 327 325 322 322
315 315 314 322 324 325 324 323 324 327 328 332 331 329 329 328 329 329 330 332 330 329 329 328 325 326 327 326 326 327 324 322

GFSFLT2_850_thetae_135.txt.gz
Theta_e
318 318 318 318 318 318 319 323 325 326 327 331 334 336 335 331 328 326 325 323 325 326 329 330 325 326 328 328 331 329 329 329
319 319 319 319 319 319 319 321 324 326 327 328 333 335 335 334 330 328 329 325 325 324 330 326 326 325 327 328 330 327 327 327
320 320 321 320 319 319 320 321 322 325 327 327 330 333 334 335 334 330 330 326 325 325 329 323 321 323 325 327 328 328 328 328
321 321 321 321 320 320 321 322 323 323 325 325 327 330 332 333 334 333 332 327 325 326 326 323 326 326 325 322 320 321 328 329
321 321 321 321 321 321 321 322 322 324 324 324 325 328 331 331 332 333 333 329 325 325 325 324 324 324 325 324 323 323 327 327
329 328 326 324 321 321 322 322 322 323 324 324 325 326 328 330 332 332 333 332 327 325 323 323 323 324 324 323 325 326 323 326
330 331 331 330 327 321 321 322 322 323 324 325 326 326 326 328 331 332 333 333 330 326 325 323 324 324 323 324 324 323 322 325
332 332 332 333 333 330 323 321 322 323 323 324 325 326 326 328 329 331 332 333 332 329 327 326 325 324 323 324 324 323 323 323
333 332 333 334 334 332 328 324 322 322 322 324 325 325 326 327 329 330 331 331 333 332 328 327 327 324 323 323 322 324 325 323
331 332 332 333 334 333 330 328 326 325 324 324 325 325 327 328 328 330 330 331 332 333 330 328 328 325 325 323 323 322 323 323
325 332 331 330 332 334 335 334 333 333 331 329 328 327 327 328 329 330 330 331 332 332 332 330 329 326 326 325 325 325 324 322
321 323 324 327 332 336 337 338 339 338 338 336 335 332 330 330 330 331 332 333 333 334 333 332 330 328 326 325 325 326 324 323
319 321 321 322 327 334 335 335 337 334 332 330 333 333 332 335 334 335 334 334 334 333 333 333 331 329 326 327 326 325 323 324
319 320 321 321 324 331 332 332 332 331 328 329 331 332 331 334 333 335 336 336 335 334 333 332 331 330 327 326 323 323 323 324
321 321 322 326 332 332 335 335 333 331 330 329 330 335 332 332 333 334 334 334 334 331 333 332 331 330 329 326 325 324 321 321
326 329 330 331 333 333 332 330 327 325 326 326 326 327 330 330 331 332 332 333 333 331 333 332 331 330 329 327 326 324 324 323
326 326 325 326 325 323 324 327 329 329 329 328 328 328 328 330 330 330 331 333 334 333 333 333 333 330 330 328 327 325 324 324
321 320 320 321 323 323 321 327 331 331 331 329 328 329 329 328 328 327 329 330 332 333 333 333 332 331 329 328 327 327 325 323
320 321 326 326 325 327 326 327 326 325 325 329 333 331 330 330 329 329 331 331 331 332 332 333 332 332 329 329 327 326 326 324
315 315 317 322 322 319 319 320 317 316 322 325 328 331 331 330 330 329 331 330 330 331 332 333 332 331 330 329 328 326 326 326